Time,TemperatureF,DewpointF,PressureIn,WindDirection,WindDirectionDegrees,WindSpeedMPH,WindSpeedGustMPH,Humidity,HourlyPrecipIn,Conditions,Clouds,dailyrainin,SoftwareType,DateUTC
2013-08-25 00:00:00,58.0,56.6,30.38,NW,323,1.0,1.0,95,0.00,,,0.00,Wunderground v.1.15,2013-08-25 04:00:00,
2013-08-25 00:01:00,58.0,56.6,30.38,NW,323,1.0,1.0,95,0.00,,,0.00,Wunderground v.1.15,2013-08-25 04:01:00,
2013-08-25 00:03:00,57.9,56.5,30.38,NW,323,1.0,1.0,95,0.00,,,0.00,Wunderground v.1.15,2013-08-25 04:03:00,
2013-08-25 00:04:00,57.9,56.5,30.38,NW,323,1.0,1.0,95,0.00,,,0.00,Wunderground v.1.15,2013-08-25 04:04:00,
2013-08-25 00:05:00,57.8,56.4,30.38,NW,323,1.0,1.0,95,0.00,,,0.00,Wunderground v.1.15,2013-08-25 04:05:00,
2013-08-25 00:07:00,57.8,56.7,30.38,NW,323,1.0,1.0,96,0.00,,,0.00,Wunderground v.1.15,2013-08-25 04:07:00,
2013-08-25 00:08:00,57.7,56.6,30.38,NW,323,1.0,1.0,96,0.00,,,0.00,Wunderground v.1.15,2013-08-25 04:08:00,
2013-08-25 00:10:00,57.7,56.6,30.38,NW,323,0.0,0.0,96,0.00,,,0.00,Wunderground v.1.15,2013-08-25 04:10:00,
2013-08-25 00:11:00,57.7,56.6,30.38,NW,323,0.0,0.0,96,0.00,,,0.00,Wunderground v.1.15,2013-08-25 04:11:00,
2013-08-25 00:12:00,57.6,56.5,30.38,NW,323,0.0,0.0,96,0.00,,,0.00,Wunderground v.1.15,2013-08-25 04:12:00,
2013-08-25 00:14:00,57.6,56.5,30.38,NW,323,0.0,0.0,96,0.00,,,0.00,Wunderground v.1.15,2013-08-25 04:14:00,
2013-08-25 00:16:00,57.5,56.4,30.38,NW,323,0.0,0.0,96,0.00,,,0.00,Wunderground v.1.15,2013-08-25 04:16:00,
2013-08-25 00:20:00,57.4,56.3,30.38,NW,323,0.0,0.0,96,0.00,,,0.00,Wunderground v.1.15,2013-08-25 04:20:00,
2013-08-25 00:21:00,57.4,56.3,30.38,NW,323,0.0,0.0,96,0.00,,,0.00,Wunderground v.1.15,2013-08-25 04:21:00,
2013-08-25 00:25:00,57.3,56.2,30.38,NW,323,0.0,0.0,96,0.00,,,0.00,Wunderground v.1.15,2013-08-25 04:25:00,
2013-08-25 00:27:00,57.3,56.2,30.38,NW,323,0.0,0.0,96,0.00,,,0.00,Wunderground v.1.15,2013-08-25 04:27:00,
2013-08-25 00:30:00,57.3,56.2,30.38,NW,313,0.0,3.0,96,0.00,,,0.00,Wunderground v.1.15,2013-08-25 04:30:00,
2013-08-25 00:31:00,57.3,56.2,30.38,NW,312,0.0,4.0,96,0.00,,,0.00,Wunderground v.1.15,2013-08-25 04:31:00,
2013-08-25 00:32:00,57.1,56.0,30.38,WNW,303,1.0,4.0,96,0.00,,,0.00,Wunderground v.1.15,2013-08-25 04:32:00,
2013-08-25 00:34:00,57.0,55.9,30.38,WNW,303,1.0,4.0,96,0.00,,,0.00,Wunderground v.1.15,2013-08-25 04:34:00,
2013-08-25 00:37:00,56.7,55.6,30.38,WNW,303,1.0,4.0,96,0.00,,,0.00,Wunderground v.1.15,2013-08-25 04:37:00,
2013-08-25 00:39:00,56.7,55.6,30.38,WNW,303,1.0,4.0,96,0.00,,,0.00,Wunderground v.1.15,2013-08-25 04:39:00,
2013-08-25 00:42:00,56.6,55.8,30.38,WNW,303,2.0,4.0,97,0.00,,,0.00,Wunderground v.1.15,2013-08-25 04:42:00,
2013-08-25 00:43:00,56.5,55.7,30.38,WNW,303,1.0,4.0,97,0.00,,,0.00,Wunderground v.1.15,2013-08-25 04:43:00,
2013-08-25 00:44:00,56.5,55.7,30.38,WNW,303,1.0,4.0,97,0.00,,,0.00,Wunderground v.1.15,2013-08-25 04:44:00,
2013-08-25 00:46:00,56.5,55.7,30.38,WNW,303,2.0,4.0,97,0.00,,,0.00,Wunderground v.1.15,2013-08-25 04:46:00,
2013-08-25 00:47:00,56.5,55.7,30.38,WNW,303,2.0,4.0,97,0.00,,,0.00,Wunderground v.1.15,2013-08-25 04:47:00,
2013-08-25 00:48:00,56.4,55.6,30.38,WNW,303,2.0,4.0,97,0.00,,,0.00,Wunderground v.1.15,2013-08-25 04:48:00,
2013-08-25 00:49:00,56.4,55.6,30.38,WNW,303,2.0,4.0,97,0.00,,,0.00,Wunderground v.1.15,2013-08-25 04:49:00,
2013-08-25 00:52:00,56.2,55.4,30.38,WNW,303,1.0,4.0,97,0.00,,,0.00,Wunderground v.1.15,2013-08-25 04:52:00,
2013-08-25 00:54:00,56.1,55.3,30.38,WNW,302,1.0,4.0,97,0.00,,,0.00,Wunderground v.1.15,2013-08-25 04:54:00,
2013-08-25 00:56:00,56.0,55.2,30.38,WNW,302,2.0,4.0,97,0.00,,,0.00,Wunderground v.1.15,2013-08-25 04:56:00,
2013-08-25 00:57:00,56.0,55.2,30.39,WNW,302,2.0,4.0,97,0.00,,,0.00,Wunderground v.1.15,2013-08-25 04:57:00,
2013-08-25 00:58:00,56.0,55.2,30.39,WNW,302,2.0,4.0,97,0.00,,,0.00,Wunderground v.1.15,2013-08-25 04:58:00,
2013-08-25 00:59:00,56.0,55.2,30.39,WNW,302,2.0,4.0,97,0.00,,,0.00,Wunderground v.1.15,2013-08-25 04:59:00,
2013-08-25 01:02:00,56.0,55.4,30.39,WNW,302,1.0,4.0,98,0.00,,,0.00,Wunderground v.1.15,2013-08-25 05:02:00,
2013-08-25 01:03:00,56.0,55.4,30.39,WNW,302,1.0,4.0,98,0.00,,,0.00,Wunderground v.1.15,2013-08-25 05:03:00,
2013-08-25 01:06:00,56.0,55.4,30.39,WNW,302,0.0,4.0,98,0.00,,,0.00,Wunderground v.1.15,2013-08-25 05:06:00,
2013-08-25 01:08:00,56.1,55.5,30.39,WNW,302,0.0,4.0,98,0.00,,,0.00,Wunderground v.1.15,2013-08-25 05:08:00,
2013-08-25 01:11:00,56.1,55.5,30.39,WNW,302,0.0,4.0,98,0.00,,,0.00,Wunderground v.1.15,2013-08-25 05:11:00,
2013-08-25 01:12:00,56.1,55.5,30.39,WNW,302,0.0,4.0,98,0.00,,,0.00,Wunderground v.1.15,2013-08-25 05:12:00,
2013-08-25 01:13:00,56.1,55.5,30.39,WNW,302,0.0,4.0,98,0.00,,,0.00,Wunderground v.1.15,2013-08-25 05:13:00,
2013-08-25 01:14:00,56.2,55.6,30.39,WNW,302,0.0,4.0,98,0.00,,,0.00,Wunderground v.1.15,2013-08-25 05:14:00,
2013-08-25 01:15:00,56.2,55.6,30.39,WNW,302,0.0,4.0,98,0.00,,,0.00,Wunderground v.1.15,2013-08-25 05:15:00,
2013-08-25 01:17:00,56.1,55.5,30.39,WNW,302,0.0,4.0,98,0.00,,,0.00,Wunderground v.1.15,2013-08-25 05:17:00,
2013-08-25 01:20:00,56.0,55.4,30.39,WNW,302,0.0,4.0,98,0.00,,,0.00,Wunderground v.1.15,2013-08-25 05:20:00,
2013-08-25 01:21:00,56.0,55.4,30.39,WNW,302,0.0,4.0,98,0.00,,,0.00,Wunderground v.1.15,2013-08-25 05:21:00,
2013-08-25 01:23:00,56.0,55.4,30.39,WNW,302,0.0,4.0,98,0.00,,,0.00,Wunderground v.1.15,2013-08-25 05:23:00,
2013-08-25 01:24:00,56.0,55.4,30.39,WNW,302,0.0,4.0,98,0.00,,,0.00,Wunderground v.1.15,2013-08-25 05:24:00,
2013-08-25 01:26:00,56.0,55.4,30.39,WNW,302,0.0,4.0,98,0.00,,,0.00,Wunderground v.1.15,2013-08-25 05:26:00,
2013-08-25 01:29:00,56.0,55.4,30.39,WNW,302,0.0,4.0,98,0.00,,,0.00,Wunderground v.1.15,2013-08-25 05:29:00,
2013-08-25 01:31:00,56.0,55.4,30.39,WNW,302,0.0,4.0,98,0.00,,,0.00,Wunderground v.1.15,2013-08-25 05:31:00,
2013-08-25 01:35:00,56.0,55.4,30.39,WNW,302,0.0,4.0,98,0.00,,,0.00,Wunderground v.1.15,2013-08-25 05:35:00,
2013-08-25 01:36:00,56.0,55.4,30.39,WNW,302,0.0,4.0,98,0.00,,,0.00,Wunderground v.1.15,2013-08-25 05:36:00,
2013-08-25 01:37:00,56.0,55.4,30.39,WNW,302,0.0,4.0,98,0.00,,,0.00,Wunderground v.1.15,2013-08-25 05:37:00,
2013-08-25 01:38:00,56.0,55.4,30.39,WNW,302,0.0,4.0,98,0.00,,,0.00,Wunderground v.1.15,2013-08-25 05:38:00,
2013-08-25 01:39:00,56.0,55.4,30.39,WNW,302,0.0,4.0,98,0.00,,,0.00,Wunderground v.1.15,2013-08-25 05:39:00,
2013-08-25 01:41:00,55.9,55.3,30.38,WNW,302,0.0,4.0,98,0.00,,,0.00,Wunderground v.1.15,2013-08-25 05:41:00,
2013-08-25 01:42:00,55.9,55.3,30.39,WNW,302,0.0,4.0,98,0.00,,,0.00,Wunderground v.1.15,2013-08-25 05:42:00,
2013-08-25 01:45:00,55.8,55.2,30.39,WNW,302,0.0,4.0,98,0.00,,,0.00,Wunderground v.1.15,2013-08-25 05:45:00,
2013-08-25 01:46:00,55.7,54.9,30.38,WNW,302,0.0,4.0,97,0.00,,,0.00,Wunderground v.1.15,2013-08-25 05:46:00,
2013-08-25 01:47:00,55.7,54.9,30.38,WNW,302,0.0,4.0,97,0.00,,,0.00,Wunderground v.1.15,2013-08-25 05:47:00,
2013-08-25 01:49:00,55.6,54.8,30.39,WNW,302,0.0,4.0,97,0.00,,,0.00,Wunderground v.1.15,2013-08-25 05:49:00,
2013-08-25 01:51:00,55.5,54.7,30.39,WNW,302,0.0,4.0,97,0.00,,,0.00,Wunderground v.1.15,2013-08-25 05:51:00,
2013-08-25 01:53:00,55.4,54.6,30.39,WNW,302,0.0,4.0,97,0.00,,,0.00,Wunderground v.1.15,2013-08-25 05:53:00,
2013-08-25 01:54:00,55.4,54.6,30.39,WNW,302,0.0,4.0,97,0.00,,,0.00,Wunderground v.1.15,2013-08-25 05:54:00,
2013-08-25 01:57:00,55.2,54.4,30.39,WNW,302,0.0,4.0,97,0.00,,,0.00,Wunderground v.1.15,2013-08-25 05:57:00,
2013-08-25 01:59:00,55.2,54.6,30.39,WNW,302,0.0,4.0,98,0.00,,,0.00,Wunderground v.1.15,2013-08-25 05:59:00,
2013-08-25 02:00:00,55.2,54.6,30.39,WNW,302,0.0,4.0,98,0.00,,,0.00,Wunderground v.1.15,2013-08-25 06:00:00,
2013-08-25 02:02:00,55.1,54.5,30.39,WNW,302,0.0,4.0,98,0.00,,,0.00,Wunderground v.1.15,2013-08-25 06:02:00,
2013-08-25 02:05:00,55.1,54.5,30.39,WNW,302,0.0,4.0,98,0.00,,,0.00,Wunderground v.1.15,2013-08-25 06:05:00,
2013-08-25 02:07:00,55.1,54.5,30.39,WNW,302,0.0,4.0,98,0.00,,,0.00,Wunderground v.1.15,2013-08-25 06:07:00,
2013-08-25 02:09:00,55.1,54.5,30.38,WNW,302,0.0,4.0,98,0.00,,,0.00,Wunderground v.1.15,2013-08-25 06:09:00,
2013-08-25 02:11:00,55.1,54.5,30.38,WNW,302,0.0,4.0,98,0.00,,,0.00,Wunderground v.1.15,2013-08-25 06:11:00,
2013-08-25 02:14:00,55.1,54.5,30.38,WNW,302,0.0,4.0,98,0.00,,,0.00,Wunderground v.1.15,2013-08-25 06:14:00,
2013-08-25 02:17:00,55.1,54.5,30.38,WNW,302,0.0,4.0,98,0.00,,,0.00,Wunderground v.1.15,2013-08-25 06:17:00,
2013-08-25 02:18:00,55.1,54.5,30.38,WNW,302,0.0,4.0,98,0.00,,,0.00,Wunderground v.1.15,2013-08-25 06:18:00,
2013-08-25 02:19:00,55.0,54.4,30.38,WNW,302,0.0,4.0,98,0.00,,,0.00,Wunderground v.1.15,2013-08-25 06:19:00,
2013-08-25 02:21:00,55.0,54.4,30.38,WNW,302,0.0,4.0,98,0.00,,,0.00,Wunderground v.1.15,2013-08-25 06:21:00,
2013-08-25 02:24:00,54.9,54.3,30.39,WNW,302,0.0,4.0,98,0.00,,,0.00,Wunderground v.1.15,2013-08-25 06:24:00,
2013-08-25 02:25:00,54.9,54.3,30.38,WNW,302,0.0,4.0,98,0.00,,,0.00,Wunderground v.1.15,2013-08-25 06:25:00,
2013-08-25 02:27:00,54.9,54.3,30.38,WNW,302,0.0,4.0,98,0.00,,,0.00,Wunderground v.1.15,2013-08-25 06:27:00,
2013-08-25 02:28:00,54.8,54.2,30.38,WNW,302,0.0,4.0,98,0.00,,,0.00,Wunderground v.1.15,2013-08-25 06:28:00,
2013-08-25 02:33:00,54.8,54.2,30.38,WNW,302,0.0,4.0,98,0.00,,,0.00,Wunderground v.1.15,2013-08-25 06:33:00,
2013-08-25 02:34:00,54.7,54.1,30.38,WNW,302,0.0,4.0,98,0.00,,,0.00,Wunderground v.1.15,2013-08-25 06:34:00,
2013-08-25 02:35:00,54.7,54.1,30.38,WNW,302,0.0,4.0,98,0.00,,,0.00,Wunderground v.1.15,2013-08-25 06:35:00,
2013-08-25 02:38:00,54.7,54.1,30.38,WNW,302,0.0,4.0,98,0.00,,,0.00,Wunderground v.1.15,2013-08-25 06:38:00,
2013-08-25 02:39:00,54.7,54.1,30.38,WNW,302,0.0,4.0,98,0.00,,,0.00,Wunderground v.1.15,2013-08-25 06:39:00,
2013-08-25 02:40:00,54.7,54.1,30.38,WNW,302,0.0,4.0,98,0.00,,,0.00,Wunderground v.1.15,2013-08-25 06:40:00,
2013-08-25 02:41:00,54.7,54.1,30.38,WNW,302,0.0,4.0,98,0.00,,,0.00,Wunderground v.1.15,2013-08-25 06:41:00,
2013-08-25 02:43:00,54.6,54.0,30.38,WNW,302,0.0,4.0,98,0.00,,,0.00,Wunderground v.1.15,2013-08-25 06:43:00,
2013-08-25 02:46:00,54.6,54.0,30.38,WNW,302,0.0,4.0,98,0.00,,,0.00,Wunderground v.1.15,2013-08-25 06:46:00,
2013-08-25 02:48:00,54.6,54.0,30.38,WNW,302,0.0,4.0,98,0.00,,,0.00,Wunderground v.1.15,2013-08-25 06:48:00,
2013-08-25 02:49:00,54.5,53.9,30.38,WNW,302,0.0,4.0,98,0.00,,,0.00,Wunderground v.1.15,2013-08-25 06:49:00,
2013-08-25 02:51:00,54.5,53.9,30.38,WNW,302,0.0,4.0,98,0.00,,,0.00,Wunderground v.1.15,2013-08-25 06:51:00,
2013-08-25 02:54:00,54.4,53.8,30.38,WNW,302,0.0,4.0,98,0.00,,,0.00,Wunderground v.1.15,2013-08-25 06:54:00,
2013-08-25 02:55:00,54.4,53.8,30.38,WNW,302,0.0,4.0,98,0.00,,,0.00,Wunderground v.1.15,2013-08-25 06:55:00,
2013-08-25 02:56:00,54.4,53.8,30.38,WNW,302,0.0,4.0,98,0.00,,,0.00,Wunderground v.1.15,2013-08-25 06:56:00,
2013-08-25 02:57:00,54.4,53.8,30.38,WNW,302,0.0,4.0,98,0.00,,,0.00,Wunderground v.1.15,2013-08-25 06:57:00,
2013-08-25 02:58:00,54.4,53.8,30.38,WNW,302,0.0,4.0,98,0.00,,,0.00,Wunderground v.1.15,2013-08-25 06:58:00,
2013-08-25 03:00:00,54.4,53.8,30.38,WNW,302,0.0,4.0,98,0.00,,,0.00,Wunderground v.1.15,2013-08-25 07:00:00,
2013-08-25 03:01:00,54.4,53.8,30.38,WNW,302,0.0,4.0,98,0.00,,,0.00,Wunderground v.1.15,2013-08-25 07:01:00,
2013-08-25 03:04:00,54.2,53.6,30.38,WNW,302,0.0,4.0,98,0.00,,,0.00,Wunderground v.1.15,2013-08-25 07:04:00,
2013-08-25 03:06:00,54.2,53.6,30.38,WNW,302,0.0,4.0,98,0.00,,,0.00,Wunderground v.1.15,2013-08-25 07:06:00,
2013-08-25 03:08:00,54.1,53.5,30.38,WNW,302,0.0,4.0,98,0.00,,,0.00,Wunderground v.1.15,2013-08-25 07:08:00,
2013-08-25 03:11:00,54.0,53.4,30.38,WNW,302,0.0,4.0,98,0.00,,,0.00,Wunderground v.1.15,2013-08-25 07:11:00,
2013-08-25 03:12:00,54.0,53.4,30.38,WNW,302,0.0,4.0,98,0.00,,,0.00,Wunderground v.1.15,2013-08-25 07:12:00,
2013-08-25 03:14:00,54.0,53.4,30.38,WNW,302,0.0,4.0,98,0.00,,,0.00,Wunderground v.1.15,2013-08-25 07:14:00,
2013-08-25 03:18:00,53.9,53.3,30.38,WNW,302,0.0,4.0,98,0.00,,,0.00,Wunderground v.1.15,2013-08-25 07:18:00,
2013-08-25 03:19:00,53.9,53.3,30.38,WNW,302,0.0,4.0,98,0.00,,,0.00,Wunderground v.1.15,2013-08-25 07:19:00,
2013-08-25 03:20:00,53.9,53.3,30.38,WNW,302,0.0,4.0,98,0.00,,,0.00,Wunderground v.1.15,2013-08-25 07:20:00,
2013-08-25 03:22:00,53.9,53.3,30.38,WNW,302,0.0,4.0,98,0.00,,,0.00,Wunderground v.1.15,2013-08-25 07:22:00,
2013-08-25 03:23:00,53.8,53.2,30.38,WNW,302,0.0,4.0,98,0.00,,,0.00,Wunderground v.1.15,2013-08-25 07:23:00,
2013-08-25 03:25:00,53.7,53.1,30.38,WNW,302,0.0,4.0,98,0.00,,,0.00,Wunderground v.1.15,2013-08-25 07:25:00,
2013-08-25 03:31:00,53.8,53.2,30.39,WNW,302,0.0,4.0,98,0.00,,,0.00,Wunderground v.1.15,2013-08-25 07:31:00,
2013-08-25 03:34:00,53.9,53.3,30.39,WNW,302,0.0,4.0,98,0.00,,,0.00,Wunderground v.1.15,2013-08-25 07:34:00,
2013-08-25 03:36:00,53.9,53.6,30.39,WNW,302,0.0,4.0,99,0.00,,,0.00,Wunderground v.1.15,2013-08-25 07:36:00,
2013-08-25 03:37:00,53.9,53.6,30.39,WNW,302,0.0,4.0,99,0.00,,,0.00,Wunderground v.1.15,2013-08-25 07:37:00,
2013-08-25 03:38:00,53.9,53.6,30.39,WNW,302,0.0,4.0,99,0.00,,,0.00,Wunderground v.1.15,2013-08-25 07:38:00,
2013-08-25 03:39:00,53.9,53.6,30.39,WNW,302,0.0,4.0,99,0.00,,,0.00,Wunderground v.1.15,2013-08-25 07:39:00,
2013-08-25 03:41:00,53.9,53.3,30.39,WNW,302,0.0,4.0,98,0.00,,,0.00,Wunderground v.1.15,2013-08-25 07:41:00,
2013-08-25 03:44:00,53.8,53.2,30.39,WNW,302,0.0,4.0,98,0.00,,,0.00,Wunderground v.1.15,2013-08-25 07:44:00,
2013-08-25 03:45:00,53.8,53.2,30.39,WNW,302,0.0,4.0,98,0.00,,,0.00,Wunderground v.1.15,2013-08-25 07:45:00,
2013-08-25 03:48:00,53.7,53.1,30.39,WNW,302,0.0,4.0,98,0.00,,,0.00,Wunderground v.1.15,2013-08-25 07:48:00,
2013-08-25 03:49:00,53.7,53.1,30.39,WNW,302,0.0,4.0,98,0.00,,,0.00,Wunderground v.1.15,2013-08-25 07:49:00,
2013-08-25 03:50:00,53.7,53.1,30.39,WNW,302,0.0,4.0,98,0.00,,,0.00,Wunderground v.1.15,2013-08-25 07:50:00,
2013-08-25 03:51:00,53.7,53.1,30.38,WNW,302,0.0,4.0,98,0.00,,,0.00,Wunderground v.1.15,2013-08-25 07:51:00,
2013-08-25 03:54:00,53.6,53.0,30.38,WNW,302,0.0,4.0,98,0.00,,,0.00,Wunderground v.1.15,2013-08-25 07:54:00,
2013-08-25 03:56:00,53.5,52.9,30.38,WNW,302,0.0,4.0,98,0.00,,,0.00,Wunderground v.1.15,2013-08-25 07:56:00,
2013-08-25 03:57:00,53.5,52.9,30.38,WNW,302,0.0,4.0,98,0.00,,,0.00,Wunderground v.1.15,2013-08-25 07:57:00,
2013-08-25 03:58:00,53.5,52.9,30.38,WNW,302,0.0,4.0,98,0.00,,,0.00,Wunderground v.1.15,2013-08-25 07:58:00,
2013-08-25 04:00:00,53.4,52.8,30.39,WNW,302,0.0,4.0,98,0.00,,,0.00,Wunderground v.1.15,2013-08-25 08:00:00,
2013-08-25 04:03:00,53.4,52.8,30.38,WNW,302,0.0,4.0,98,0.00,,,0.00,Wunderground v.1.15,2013-08-25 08:03:00,
2013-08-25 04:04:00,53.4,52.8,30.38,WNW,302,0.0,4.0,98,0.00,,,0.00,Wunderground v.1.15,2013-08-25 08:04:00,
2013-08-25 04:07:00,53.4,52.8,30.38,WNW,302,0.0,4.0,98,0.00,,,0.00,Wunderground v.1.15,2013-08-25 08:07:00,
2013-08-25 04:08:00,53.4,52.8,30.38,WNW,302,0.0,4.0,98,0.00,,,0.00,Wunderground v.1.15,2013-08-25 08:08:00,
2013-08-25 04:09:00,53.4,52.8,30.38,WNW,302,0.0,4.0,98,0.00,,,0.00,Wunderground v.1.15,2013-08-25 08:09:00,
2013-08-25 04:12:00,53.4,52.8,30.39,WNW,302,0.0,4.0,98,0.00,,,0.00,Wunderground v.1.15,2013-08-25 08:12:00,
2013-08-25 04:14:00,53.3,52.8,30.39,WNW,302,0.0,4.0,98,0.00,,,0.00,Wunderground v.1.15,2013-08-25 08:14:00,
2013-08-25 04:15:00,53.3,52.8,30.39,WNW,302,0.0,4.0,98,0.00,,,0.00,Wunderground v.1.15,2013-08-25 08:15:00,
2013-08-25 04:17:00,53.3,52.8,30.39,WNW,302,0.0,4.0,98,0.00,,,0.00,Wunderground v.1.15,2013-08-25 08:17:00,
2013-08-25 04:19:00,53.3,52.8,30.39,WNW,302,0.0,4.0,98,0.00,,,0.00,Wunderground v.1.15,2013-08-25 08:19:00,
2013-08-25 04:20:00,53.2,52.7,30.39,WNW,302,0.0,4.0,98,0.00,,,0.00,Wunderground v.1.15,2013-08-25 08:20:00,
2013-08-25 04:23:00,53.1,52.6,30.39,WNW,302,0.0,4.0,98,0.00,,,0.00,Wunderground v.1.15,2013-08-25 08:23:00,
2013-08-25 04:25:00,53.0,52.5,30.39,WNW,302,0.0,4.0,98,0.00,,,0.00,Wunderground v.1.15,2013-08-25 08:25:00,
2013-08-25 04:26:00,53.0,52.5,30.39,WNW,302,0.0,4.0,98,0.00,,,0.00,Wunderground v.1.15,2013-08-25 08:26:00,
2013-08-25 04:29:00,52.9,52.4,30.39,WNW,302,0.0,4.0,98,0.00,,,0.00,Wunderground v.1.15,2013-08-25 08:29:00,
2013-08-25 04:30:00,52.9,52.4,30.39,WNW,302,0.0,4.0,98,0.00,,,0.00,Wunderground v.1.15,2013-08-25 08:30:00,
2013-08-25 04:31:00,53.0,52.5,30.39,WNW,302,0.0,4.0,98,0.00,,,0.00,Wunderground v.1.15,2013-08-25 08:31:00,
2013-08-25 04:32:00,53.0,52.5,30.39,WNW,302,0.0,4.0,98,0.00,,,0.00,Wunderground v.1.15,2013-08-25 08:32:00,
2013-08-25 04:34:00,53.0,52.5,30.39,WNW,302,0.0,4.0,98,0.00,,,0.00,Wunderground v.1.15,2013-08-25 08:34:00,
2013-08-25 04:36:00,53.0,52.5,30.39,WNW,302,0.0,4.0,98,0.00,,,0.00,Wunderground v.1.15,2013-08-25 08:36:00,
2013-08-25 04:37:00,53.0,52.5,30.39,WNW,302,0.0,4.0,98,0.00,,,0.00,Wunderground v.1.15,2013-08-25 08:37:00,
2013-08-25 04:40:00,53.0,52.7,30.39,WNW,302,0.0,4.0,99,0.00,,,0.00,Wunderground v.1.15,2013-08-25 08:40:00,
2013-08-25 04:42:00,53.0,52.5,30.39,WNW,302,0.0,4.0,98,0.00,,,0.00,Wunderground v.1.15,2013-08-25 08:42:00,
2013-08-25 04:43:00,52.9,52.4,30.39,WNW,302,0.0,4.0,98,0.00,,,0.00,Wunderground v.1.15,2013-08-25 08:43:00,
2013-08-25 04:45:00,52.9,52.4,30.39,WNW,302,0.0,4.0,98,0.00,,,0.00,Wunderground v.1.15,2013-08-25 08:45:00,
2013-08-25 04:49:00,52.8,52.3,30.39,WNW,302,0.0,4.0,98,0.00,,,0.00,Wunderground v.1.15,2013-08-25 08:49:00,
2013-08-25 04:50:00,52.8,52.3,30.39,WNW,302,0.0,4.0,98,0.00,,,0.00,Wunderground v.1.15,2013-08-25 08:50:00,
2013-08-25 04:51:00,52.8,52.5,30.39,WNW,302,0.0,4.0,99,0.00,,,0.00,Wunderground v.1.15,2013-08-25 08:51:00,
2013-08-25 04:54:00,52.8,52.5,30.39,WNW,302,0.0,4.0,99,0.00,,,0.00,Wunderground v.1.15,2013-08-25 08:54:00,
2013-08-25 04:55:00,52.7,52.2,30.39,WNW,302,0.0,4.0,98,0.00,,,0.00,Wunderground v.1.15,2013-08-25 08:55:00,
2013-08-25 04:57:00,52.7,52.2,30.39,WNW,302,0.0,4.0,98,0.00,,,0.00,Wunderground v.1.15,2013-08-25 08:57:00,
2013-08-25 04:58:00,52.7,52.4,30.39,WNW,302,0.0,4.0,99,0.00,,,0.00,Wunderground v.1.15,2013-08-25 08:58:00,
2013-08-25 05:00:00,52.6,52.3,30.39,WNW,302,0.0,4.0,99,0.00,,,0.00,Wunderground v.1.15,2013-08-25 09:00:00,
2013-08-25 05:02:00,52.6,52.3,30.39,WNW,302,0.0,4.0,99,0.00,,,0.00,Wunderground v.1.15,2013-08-25 09:02:00,
2013-08-25 05:04:00,52.6,52.1,30.39,WNW,302,0.0,4.0,98,0.00,,,0.00,Wunderground v.1.15,2013-08-25 09:04:00,
2013-08-25 05:06:00,52.5,52.0,30.39,WNW,302,0.0,4.0,98,0.00,,,0.00,Wunderground v.1.15,2013-08-25 09:06:00,
2013-08-25 05:08:00,52.4,51.9,30.39,WNW,302,0.0,4.0,98,0.00,,,0.00,Wunderground v.1.15,2013-08-25 09:08:00,
2013-08-25 05:10:00,52.2,51.7,30.39,WNW,302,0.0,4.0,98,0.00,,,0.00,Wunderground v.1.15,2013-08-25 09:10:00,
2013-08-25 05:13:00,52.2,51.7,30.40,WNW,302,0.0,4.0,98,0.00,,,0.00,Wunderground v.1.15,2013-08-25 09:13:00,
2013-08-25 05:14:00,52.2,51.7,30.40,WNW,302,0.0,4.0,98,0.00,,,0.00,Wunderground v.1.15,2013-08-25 09:14:00,
2013-08-25 05:15:00,52.2,51.7,30.40,WNW,302,0.0,4.0,98,0.00,,,0.00,Wunderground v.1.15,2013-08-25 09:15:00,
2013-08-25 05:16:00,52.2,51.7,30.40,WNW,302,0.0,4.0,98,0.00,,,0.00,Wunderground v.1.15,2013-08-25 09:16:00,
2013-08-25 05:17:00,52.2,51.7,30.40,WNW,302,0.0,4.0,98,0.00,,,0.00,Wunderground v.1.15,2013-08-25 09:17:00,
2013-08-25 05:21:00,52.1,51.8,30.40,WNW,302,0.0,4.0,99,0.00,,,0.00,Wunderground v.1.15,2013-08-25 09:21:00,
2013-08-25 05:22:00,52.1,51.8,30.40,WNW,302,0.0,4.0,99,0.00,,,0.00,Wunderground v.1.15,2013-08-25 09:22:00,
2013-08-25 05:23:00,52.1,51.8,30.40,WNW,302,0.0,4.0,99,0.00,,,0.00,Wunderground v.1.15,2013-08-25 09:23:00,
2013-08-25 05:27:00,52.1,51.8,30.40,WNW,302,0.0,4.0,99,0.00,,,0.00,Wunderground v.1.15,2013-08-25 09:27:00,
2013-08-25 05:28:00,52.1,51.8,30.40,WNW,302,0.0,4.0,99,0.00,,,0.00,Wunderground v.1.15,2013-08-25 09:28:00,
2013-08-25 05:29:00,52.1,51.8,30.40,WNW,302,0.0,4.0,99,0.00,,,0.01,Wunderground v.1.15,2013-08-25 09:29:00,
2013-08-25 05:30:00,52.2,51.9,30.40,WNW,302,0.0,4.0,99,0.00,,,0.01,Wunderground v.1.15,2013-08-25 09:30:00,
2013-08-25 05:33:00,52.3,52.0,30.41,WNW,302,0.0,4.0,99,0.00,,,0.01,Wunderground v.1.15,2013-08-25 09:33:00,
2013-08-25 05:35:00,52.2,51.9,30.41,WNW,302,0.0,4.0,99,0.00,,,0.01,Wunderground v.1.15,2013-08-25 09:35:00,
2013-08-25 05:37:00,52.2,51.9,30.41,WNW,302,0.0,4.0,99,0.00,,,0.01,Wunderground v.1.15,2013-08-25 09:37:00,
2013-08-25 05:38:00,52.1,51.8,30.40,WNW,302,0.0,4.0,99,0.00,,,0.01,Wunderground v.1.15,2013-08-25 09:38:00,
2013-08-25 05:42:00,52.0,51.7,30.41,WNW,302,0.0,4.0,99,0.00,,,0.01,Wunderground v.1.15,2013-08-25 09:42:00,
2013-08-25 05:44:00,52.0,51.7,30.41,WNW,302,0.0,4.0,99,0.00,,,0.01,Wunderground v.1.15,2013-08-25 09:44:00,
2013-08-25 05:45:00,52.0,51.7,30.41,WNW,302,0.0,4.0,99,0.00,,,0.01,Wunderground v.1.15,2013-08-25 09:45:00,
2013-08-25 05:46:00,51.9,51.6,30.41,WNW,302,0.0,4.0,99,0.00,,,0.01,Wunderground v.1.15,2013-08-25 09:46:00,
2013-08-25 05:47:00,51.9,51.6,30.41,WNW,302,0.0,4.0,99,0.00,,,0.01,Wunderground v.1.15,2013-08-25 09:47:00,
2013-08-25 05:50:00,51.9,51.6,30.41,WNW,302,0.0,4.0,99,0.00,,,0.01,Wunderground v.1.15,2013-08-25 09:50:00,
2013-08-25 05:51:00,51.9,51.6,30.41,WNW,302,0.0,4.0,99,0.00,,,0.01,Wunderground v.1.15,2013-08-25 09:51:00,
2013-08-25 05:52:00,51.9,51.6,30.41,WNW,302,0.0,4.0,99,0.00,,,0.01,Wunderground v.1.15,2013-08-25 09:52:00,
2013-08-25 05:54:00,51.9,51.6,30.41,WNW,302,0.0,4.0,99,0.00,,,0.01,Wunderground v.1.15,2013-08-25 09:54:00,
2013-08-25 05:58:00,51.9,51.6,30.41,WNW,302,0.0,4.0,99,0.00,,,0.01,Wunderground v.1.15,2013-08-25 09:58:00,
2013-08-25 05:59:00,51.9,51.6,30.41,WNW,302,0.0,4.0,99,0.00,,,0.01,Wunderground v.1.15,2013-08-25 09:59:00,
2013-08-25 06:00:00,51.9,51.6,30.41,WNW,302,0.0,4.0,99,0.00,,,0.01,Wunderground v.1.15,2013-08-25 10:00:00,
2013-08-25 06:01:00,51.9,51.6,30.41,WNW,302,0.0,4.0,99,0.00,,,0.01,Wunderground v.1.15,2013-08-25 10:01:00,
2013-08-25 06:02:00,51.9,51.6,30.41,WNW,302,0.0,4.0,99,0.00,,,0.01,Wunderground v.1.15,2013-08-25 10:02:00,
2013-08-25 06:03:00,51.9,51.6,30.42,WNW,302,0.0,4.0,99,0.00,,,0.01,Wunderground v.1.15,2013-08-25 10:03:00,
2013-08-25 06:04:00,51.9,51.6,30.41,WNW,302,0.0,4.0,99,0.00,,,0.01,Wunderground v.1.15,2013-08-25 10:04:00,
2013-08-25 06:06:00,51.9,51.6,30.41,WNW,302,0.0,4.0,99,0.00,,,0.01,Wunderground v.1.15,2013-08-25 10:06:00,
2013-08-25 06:07:00,51.8,51.5,30.41,WNW,302,0.0,4.0,99,0.00,,,0.01,Wunderground v.1.15,2013-08-25 10:07:00,
2013-08-25 06:11:00,51.8,51.5,30.42,WNW,302,0.0,4.0,99,0.00,,,0.01,Wunderground v.1.15,2013-08-25 10:11:00,
2013-08-25 06:12:00,51.8,51.5,30.42,WNW,302,0.0,4.0,99,0.00,,,0.01,Wunderground v.1.15,2013-08-25 10:12:00,
2013-08-25 06:13:00,51.7,51.4,30.42,WNW,302,0.0,4.0,99,0.00,,,0.01,Wunderground v.1.15,2013-08-25 10:13:00,
2013-08-25 06:17:00,51.8,51.5,30.41,WNW,302,0.0,4.0,99,0.00,,,0.01,Wunderground v.1.15,2013-08-25 10:17:00,
2013-08-25 06:18:00,51.8,51.5,30.41,WNW,302,0.0,4.0,99,0.00,,,0.01,Wunderground v.1.15,2013-08-25 10:18:00,
2013-08-25 06:20:00,51.8,51.5,30.41,WNW,302,0.0,4.0,99,0.00,,,0.01,Wunderground v.1.15,2013-08-25 10:20:00,
2013-08-25 06:24:00,51.7,51.4,30.42,WNW,302,0.0,4.0,99,0.00,,,0.01,Wunderground v.1.15,2013-08-25 10:24:00,
2013-08-25 06:25:00,51.7,51.4,30.42,WNW,302,0.0,4.0,99,0.00,,,0.01,Wunderground v.1.15,2013-08-25 10:25:00,
2013-08-25 06:30:00,51.7,51.4,30.42,WNW,302,0.0,4.0,99,0.00,,,0.01,Wunderground v.1.15,2013-08-25 10:30:00,
2013-08-25 06:31:00,51.7,51.4,30.42,WNW,302,0.0,4.0,99,0.00,,,0.01,Wunderground v.1.15,2013-08-25 10:31:00,
2013-08-25 06:32:00,51.6,51.3,30.42,WNW,302,0.0,4.0,99,0.00,,,0.01,Wunderground v.1.15,2013-08-25 10:32:00,
2013-08-25 06:37:00,51.3,51.0,30.42,WNW,302,0.0,4.0,99,0.00,,,0.01,Wunderground v.1.15,2013-08-25 10:37:00,
2013-08-25 06:38:00,51.3,51.0,30.42,WNW,302,0.0,4.0,99,0.00,,,0.01,Wunderground v.1.15,2013-08-25 10:38:00,
2013-08-25 06:40:00,51.2,50.9,30.42,WNW,302,0.0,4.0,99,0.00,,,0.01,Wunderground v.1.15,2013-08-25 10:40:00,
2013-08-25 06:42:00,51.2,50.7,30.42,WNW,302,0.0,4.0,98,0.00,,,0.01,Wunderground v.1.15,2013-08-25 10:42:00,
2013-08-25 06:44:00,51.2,50.7,30.42,WNW,302,0.0,4.0,98,0.00,,,0.01,Wunderground v.1.15,2013-08-25 10:44:00,
2013-08-25 06:45:00,51.2,50.9,30.42,WNW,302,0.0,4.0,99,0.00,,,0.01,Wunderground v.1.15,2013-08-25 10:45:00,
2013-08-25 06:47:00,51.2,50.9,30.42,WNW,302,0.0,4.0,99,0.00,,,0.01,Wunderground v.1.15,2013-08-25 10:47:00,
2013-08-25 06:49:00,51.2,50.9,30.43,WNW,302,0.0,4.0,99,0.00,,,0.01,Wunderground v.1.15,2013-08-25 10:49:00,
2013-08-25 06:52:00,51.0,50.7,30.43,WNW,302,0.0,4.0,99,0.00,,,0.01,Wunderground v.1.15,2013-08-25 10:52:00,
2013-08-25 06:53:00,51.0,50.7,30.43,WNW,302,0.0,4.0,99,0.00,,,0.01,Wunderground v.1.15,2013-08-25 10:53:00,
2013-08-25 06:55:00,51.0,50.7,30.43,WNW,302,0.0,4.0,99,0.00,,,0.01,Wunderground v.1.15,2013-08-25 10:55:00,
2013-08-25 06:59:00,51.1,50.8,30.43,WNW,302,0.0,4.0,99,0.00,,,0.01,Wunderground v.1.15,2013-08-25 10:59:00,
2013-08-25 07:00:00,51.1,50.8,30.43,WNW,302,0.0,4.0,99,0.00,,,0.01,Wunderground v.1.15,2013-08-25 11:00:00,
2013-08-25 07:01:00,51.0,50.7,30.43,WNW,302,0.0,4.0,99,0.00,,,0.01,Wunderground v.1.15,2013-08-25 11:01:00,
2013-08-25 07:04:00,51.0,50.7,30.44,WNW,302,0.0,4.0,99,0.00,,,0.01,Wunderground v.1.15,2013-08-25 11:04:00,
2013-08-25 07:07:00,51.1,50.8,30.44,WNW,302,0.0,4.0,99,0.00,,,0.01,Wunderground v.1.15,2013-08-25 11:07:00,
2013-08-25 07:08:00,51.2,50.9,30.44,WNW,302,0.0,4.0,99,0.00,,,0.01,Wunderground v.1.15,2013-08-25 11:08:00,
2013-08-25 07:09:00,51.2,50.9,30.44,WNW,302,0.0,4.0,99,0.00,,,0.01,Wunderground v.1.15,2013-08-25 11:09:00,
2013-08-25 07:12:00,51.2,50.9,30.44,WNW,302,0.0,4.0,99,0.00,,,0.01,Wunderground v.1.15,2013-08-25 11:12:00,
2013-08-25 07:13:00,51.2,50.9,30.44,WNW,302,0.0,4.0,99,0.00,,,0.01,Wunderground v.1.15,2013-08-25 11:13:00,
2013-08-25 07:16:00,51.1,50.8,30.44,WNW,302,0.0,4.0,99,0.00,,,0.01,Wunderground v.1.15,2013-08-25 11:16:00,
2013-08-25 07:19:00,51.1,50.8,30.44,WNW,302,0.0,4.0,99,0.00,,,0.01,Wunderground v.1.15,2013-08-25 11:19:00,
2013-08-25 07:21:00,51.0,50.7,30.44,WNW,302,0.0,4.0,99,0.00,,,0.01,Wunderground v.1.15,2013-08-25 11:21:00,
2013-08-25 07:22:00,51.0,50.7,30.44,WNW,302,0.0,4.0,99,0.00,,,0.01,Wunderground v.1.15,2013-08-25 11:22:00,
2013-08-25 07:25:00,51.0,50.7,30.44,WNW,302,0.0,4.0,99,0.00,,,0.01,Wunderground v.1.15,2013-08-25 11:25:00,
2013-08-25 07:26:00,51.0,50.7,30.44,WNW,302,0.0,4.0,99,0.00,,,0.01,Wunderground v.1.15,2013-08-25 11:26:00,
2013-08-25 07:27:00,51.0,50.7,30.44,WNW,302,0.0,4.0,99,0.00,,,0.01,Wunderground v.1.15,2013-08-25 11:27:00,
2013-08-25 07:30:00,50.9,50.6,30.44,WNW,302,0.0,4.0,99,0.00,,,0.01,Wunderground v.1.15,2013-08-25 11:30:00,
2013-08-25 07:31:00,50.9,50.6,30.44,WNW,302,0.0,4.0,99,0.00,,,0.01,Wunderground v.1.15,2013-08-25 11:31:00,
2013-08-25 07:32:00,50.9,50.6,30.44,WNW,302,0.0,4.0,99,0.00,,,0.01,Wunderground v.1.15,2013-08-25 11:32:00,
2013-08-25 07:34:00,50.9,50.6,30.44,WNW,302,0.0,4.0,99,0.00,,,0.01,Wunderground v.1.15,2013-08-25 11:34:00,
2013-08-25 07:37:00,50.9,50.6,30.44,WNW,302,0.0,4.0,99,0.00,,,0.01,Wunderground v.1.15,2013-08-25 11:37:00,
2013-08-25 07:40:00,51.0,50.7,30.44,WNW,302,0.0,4.0,99,0.00,,,0.01,Wunderground v.1.15,2013-08-25 11:40:00,
2013-08-25 07:41:00,51.1,50.8,30.44,WNW,302,0.0,4.0,99,0.00,,,0.01,Wunderground v.1.15,2013-08-25 11:41:00,
2013-08-25 07:42:00,51.2,50.9,30.45,WNW,302,0.0,4.0,99,0.00,,,0.01,Wunderground v.1.15,2013-08-25 11:42:00,
2013-08-25 07:43:00,51.3,51.0,30.44,WNW,302,0.0,4.0,99,0.00,,,0.01,Wunderground v.1.15,2013-08-25 11:43:00,
2013-08-25 07:46:00,51.4,51.1,30.45,WNW,302,0.0,4.0,99,0.00,,,0.01,Wunderground v.1.15,2013-08-25 11:46:00,
2013-08-25 07:49:00,51.6,51.3,30.45,WNW,302,0.0,4.0,99,0.00,,,0.01,Wunderground v.1.15,2013-08-25 11:49:00,
2013-08-25 07:52:00,51.8,51.5,30.45,WNW,302,0.0,4.0,99,0.00,,,0.01,Wunderground v.1.15,2013-08-25 11:52:00,
2013-08-25 07:53:00,52.0,51.7,30.45,WNW,302,0.0,4.0,99,0.00,,,0.01,Wunderground v.1.15,2013-08-25 11:53:00,
2013-08-25 07:55:00,52.2,51.9,30.45,WNW,302,0.0,4.0,99,0.00,,,0.01,Wunderground v.1.15,2013-08-25 11:55:00,
2013-08-25 07:58:00,52.4,52.1,30.45,WNW,302,0.0,4.0,99,0.00,,,0.01,Wunderground v.1.15,2013-08-25 11:58:00,
2013-08-25 08:00:00,52.5,52.2,30.45,WNW,302,0.0,4.0,99,0.00,,,0.01,Wunderground v.1.15,2013-08-25 12:00:00,
2013-08-25 08:03:00,52.8,52.5,30.45,WNW,302,0.0,4.0,99,0.00,,,0.01,Wunderground v.1.15,2013-08-25 12:03:00,
2013-08-25 08:04:00,52.9,52.6,30.46,WNW,302,0.0,4.0,99,0.00,,,0.01,Wunderground v.1.15,2013-08-25 12:04:00,
2013-08-25 08:05:00,53.1,52.8,30.46,WNW,302,0.0,4.0,99,0.00,,,0.01,Wunderground v.1.15,2013-08-25 12:05:00,
2013-08-25 08:06:00,53.2,52.9,30.46,WNW,302,0.0,4.0,99,0.00,,,0.01,Wunderground v.1.15,2013-08-25 12:06:00,
2013-08-25 08:08:00,53.6,53.3,30.46,WNW,302,0.0,4.0,99,0.00,,,0.01,Wunderground v.1.15,2013-08-25 12:08:00,
2013-08-25 08:11:00,53.9,53.6,30.46,WNW,302,0.0,4.0,99,0.00,,,0.01,Wunderground v.1.15,2013-08-25 12:11:00,
2013-08-25 08:12:00,54.0,53.7,30.46,WNW,302,0.0,4.0,99,0.00,,,0.01,Wunderground v.1.15,2013-08-25 12:12:00,
2013-08-25 08:13:00,54.0,53.7,30.46,WNW,302,0.0,4.0,99,0.00,,,0.01,Wunderground v.1.15,2013-08-25 12:13:00,
2013-08-25 08:14:00,54.1,53.8,30.46,WNW,302,0.0,4.0,99,0.00,,,0.01,Wunderground v.1.15,2013-08-25 12:14:00,
2013-08-25 08:16:00,54.2,53.9,30.46,WNW,302,0.0,4.0,99,0.00,,,0.01,Wunderground v.1.15,2013-08-25 12:16:00,
2013-08-25 08:18:00,54.4,54.1,30.46,WNW,302,0.0,4.0,99,0.00,,,0.01,Wunderground v.1.15,2013-08-25 12:18:00,
2013-08-25 08:19:00,54.6,54.3,30.47,WNW,302,0.0,4.0,99,0.00,,,0.01,Wunderground v.1.15,2013-08-25 12:19:00,
2013-08-25 08:21:00,54.9,54.6,30.47,WNW,302,0.0,4.0,99,0.00,,,0.01,Wunderground v.1.15,2013-08-25 12:21:00,
2013-08-25 08:23:00,55.2,54.9,30.47,WNW,302,0.0,4.0,99,0.00,,,0.01,Wunderground v.1.15,2013-08-25 12:23:00,
2013-08-25 08:24:00,55.4,55.1,30.47,WNW,302,0.0,4.0,99,0.00,,,0.01,Wunderground v.1.15,2013-08-25 12:24:00,
2013-08-25 08:26:00,55.9,55.9,30.47,WNW,302,0.0,4.0,100,0.00,,,0.01,Wunderground v.1.15,2013-08-25 12:26:00,
2013-08-25 08:29:00,56.3,56.0,30.47,WNW,302,0.0,4.0,99,0.00,,,0.01,Wunderground v.1.15,2013-08-25 12:29:00,
2013-08-25 08:32:00,56.4,56.1,30.47,WNW,302,0.0,4.0,99,0.00,,,0.01,Wunderground v.1.15,2013-08-25 12:32:00,
2013-08-25 08:35:00,56.6,56.3,30.47,WNW,302,0.0,4.0,99,0.00,,,0.01,Wunderground v.1.15,2013-08-25 12:35:00,
2013-08-25 08:36:00,56.6,56.3,30.47,WNW,302,0.0,4.0,99,0.00,,,0.01,Wunderground v.1.15,2013-08-25 12:36:00,
2013-08-25 08:37:00,56.7,56.4,30.47,WNW,302,0.0,4.0,99,0.00,,,0.01,Wunderground v.1.15,2013-08-25 12:37:00,
2013-08-25 08:40:00,56.8,56.5,30.47,WNW,302,0.0,4.0,99,0.00,,,0.01,Wunderground v.1.15,2013-08-25 12:40:00,
2013-08-25 08:43:00,56.9,56.6,30.47,WNW,302,0.0,4.0,99,0.00,,,0.01,Wunderground v.1.15,2013-08-25 12:43:00,
2013-08-25 08:44:00,56.9,56.6,30.47,WNW,302,0.0,4.0,99,0.00,,,0.01,Wunderground v.1.15,2013-08-25 12:44:00,
2013-08-25 08:48:00,57.0,56.4,30.47,WNW,302,0.0,4.0,98,0.00,,,0.01,Wunderground v.1.15,2013-08-25 12:48:00,
2013-08-25 08:49:00,57.0,56.4,30.47,WNW,302,0.0,4.0,98,0.00,,,0.01,Wunderground v.1.15,2013-08-25 12:49:00,
2013-08-25 08:52:00,57.2,56.6,30.47,WNW,302,0.0,4.0,98,0.00,,,0.01,Wunderground v.1.15,2013-08-25 12:52:00,
2013-08-25 08:53:00,57.4,56.8,30.47,WNW,302,0.0,4.0,98,0.00,,,0.01,Wunderground v.1.15,2013-08-25 12:53:00,
2013-08-25 08:55:00,57.5,56.9,30.47,WNW,302,0.0,4.0,98,0.00,,,0.01,Wunderground v.1.15,2013-08-25 12:55:00,
2013-08-25 08:56:00,57.6,57.0,30.47,WNW,302,0.0,4.0,98,0.00,,,0.01,Wunderground v.1.15,2013-08-25 12:56:00,
2013-08-25 08:58:00,57.8,57.2,30.47,WNW,302,0.0,4.0,98,0.00,,,0.01,Wunderground v.1.15,2013-08-25 12:58:00,
2013-08-25 09:00:00,58.0,57.4,30.47,WNW,302,0.0,4.0,98,0.00,,,0.01,Wunderground v.1.15,2013-08-25 13:00:00,
2013-08-25 09:03:00,58.3,57.5,30.47,WNW,302,0.0,4.0,97,0.00,,,0.01,Wunderground v.1.15,2013-08-25 13:03:00,
2013-08-25 09:04:00,58.4,57.6,30.47,WNW,302,0.0,4.0,97,0.00,,,0.01,Wunderground v.1.15,2013-08-25 13:04:00,
2013-08-25 09:06:00,58.6,57.8,30.47,WNW,302,0.0,4.0,97,0.00,,,0.01,Wunderground v.1.15,2013-08-25 13:06:00,
2013-08-25 09:09:00,59.1,58.2,30.47,WNW,302,0.0,4.0,97,0.00,,,0.01,Wunderground v.1.15,2013-08-25 13:09:00,
2013-08-25 09:10:00,59.2,58.3,30.47,WNW,302,0.0,4.0,97,0.00,,,0.01,Wunderground v.1.15,2013-08-25 13:10:00,
2013-08-25 09:11:00,59.3,58.2,30.47,WNW,302,0.0,4.0,96,0.00,,,0.01,Wunderground v.1.15,2013-08-25 13:11:00,
2013-08-25 09:12:00,59.4,58.3,30.47,WNW,302,0.0,4.0,96,0.00,,,0.01,Wunderground v.1.15,2013-08-25 13:12:00,
2013-08-25 09:17:00,59.8,58.4,30.47,WNW,302,0.0,4.0,95,0.00,,,0.01,Wunderground v.1.15,2013-08-25 13:17:00,
2013-08-25 09:18:00,60.0,58.6,30.47,WNW,302,0.0,4.0,95,0.00,,,0.01,Wunderground v.1.15,2013-08-25 13:18:00,
2013-08-25 09:21:00,60.3,58.9,30.47,WNW,302,0.0,4.0,95,0.00,,,0.01,Wunderground v.1.15,2013-08-25 13:21:00,
2013-08-25 09:24:00,60.8,59.7,30.47,WNW,302,0.0,4.0,96,0.00,,,0.01,Wunderground v.1.15,2013-08-25 13:24:00,
2013-08-25 09:25:00,61.1,59.7,30.47,WNW,302,0.0,4.0,95,0.00,,,0.01,Wunderground v.1.15,2013-08-25 13:25:00,
2013-08-25 09:26:00,61.3,59.6,30.47,WNW,302,0.0,4.0,94,0.00,,,0.01,Wunderground v.1.15,2013-08-25 13:26:00,
2013-08-25 09:28:00,61.7,59.7,30.47,NW,304,0.0,4.0,93,0.00,,,0.01,Wunderground v.1.15,2013-08-25 13:28:00,
2013-08-25 09:30:00,62.3,59.3,30.47,NW,304,0.0,4.0,90,0.00,,,0.01,Wunderground v.1.15,2013-08-25 13:30:00,
2013-08-25 09:32:00,62.5,59.2,30.47,NE,36,0.0,4.0,89,0.00,,,0.01,Wunderground v.1.15,2013-08-25 13:32:00,
2013-08-25 09:33:00,62.7,59.7,30.47,NE,36,1.0,4.0,90,0.00,,,0.01,Wunderground v.1.15,2013-08-25 13:33:00,
2013-08-25 09:37:00,63.1,60.1,30.47,NE,36,1.0,4.0,90,0.00,,,0.01,Wunderground v.1.15,2013-08-25 13:37:00,
2013-08-25 09:39:00,63.1,59.8,30.47,NE,36,1.0,4.0,89,0.00,,,0.01,Wunderground v.1.15,2013-08-25 13:39:00,
2013-08-25 09:41:00,63.2,60.2,30.48,NE,36,1.0,4.0,90,0.00,,,0.01,Wunderground v.1.15,2013-08-25 13:41:00,
2013-08-25 09:43:00,63.2,60.2,30.48,NE,36,1.0,4.0,90,0.00,,,0.01,Wunderground v.1.15,2013-08-25 13:43:00,
2013-08-25 09:44:00,63.2,59.9,30.48,NE,36,0.0,4.0,89,0.00,,,0.01,Wunderground v.1.15,2013-08-25 13:44:00,
2013-08-25 09:46:00,63.1,60.1,30.48,NE,36,0.0,4.0,90,0.00,,,0.01,Wunderground v.1.15,2013-08-25 13:46:00,
2013-08-25 09:48:00,63.1,60.1,30.48,NE,36,0.0,4.0,90,0.00,,,0.01,Wunderground v.1.15,2013-08-25 13:48:00,
2013-08-25 09:49:00,63.1,60.1,30.48,NE,36,0.0,4.0,90,0.00,,,0.01,Wunderground v.1.15,2013-08-25 13:49:00,
2013-08-25 09:50:00,63.1,60.1,30.48,NE,36,0.0,4.0,90,0.00,,,0.01,Wunderground v.1.15,2013-08-25 13:50:00,
2013-08-25 09:52:00,63.2,60.2,30.48,NE,36,0.0,4.0,90,0.00,,,0.01,Wunderground v.1.15,2013-08-25 13:52:00,
2013-08-25 09:54:00,63.2,60.2,30.48,NE,36,0.0,4.0,90,0.00,,,0.01,Wunderground v.1.15,2013-08-25 13:54:00,
2013-08-25 09:55:00,63.3,60.3,30.48,NE,36,0.0,4.0,90,0.00,,,0.01,Wunderground v.1.15,2013-08-25 13:55:00,
2013-08-25 09:56:00,63.4,60.4,30.48,NE,36,0.0,4.0,90,0.00,,,0.01,Wunderground v.1.15,2013-08-25 13:56:00,
2013-08-25 09:57:00,63.5,60.5,30.48,NE,36,0.0,4.0,90,0.00,,,0.01,Wunderground v.1.15,2013-08-25 13:57:00,
2013-08-25 10:00:00,63.9,60.6,30.48,NE,36,0.0,4.0,89,0.00,,,0.01,Wunderground v.1.15,2013-08-25 14:00:00,
2013-08-25 10:01:00,64.1,60.8,30.48,NE,36,0.0,4.0,89,0.00,,,0.01,Wunderground v.1.15,2013-08-25 14:01:00,
2013-08-25 10:02:00,64.2,61.2,30.47,NE,36,0.0,4.0,90,0.00,,,0.01,Wunderground v.1.15,2013-08-25 14:02:00,
2013-08-25 10:04:00,64.5,61.2,30.47,NE,46,1.0,4.0,89,0.00,,,0.01,Wunderground v.1.15,2013-08-25 14:04:00,
2013-08-25 10:06:00,64.7,61.1,30.47,South,178,1.0,4.0,88,0.00,,,0.01,Wunderground v.1.15,2013-08-25 14:06:00,
2013-08-25 10:11:00,64.8,60.5,30.47,South,187,1.0,4.0,86,0.00,,,0.01,Wunderground v.1.15,2013-08-25 14:11:00,
2013-08-25 10:12:00,64.9,60.9,30.47,South,187,1.0,4.0,87,0.00,,,0.01,Wunderground v.1.15,2013-08-25 14:12:00,
2013-08-25 10:15:00,65.1,61.5,30.47,South,187,1.0,4.0,88,0.00,,,0.01,Wunderground v.1.15,2013-08-25 14:15:00,
2013-08-25 10:19:00,65.2,61.2,30.47,South,190,1.0,4.0,87,0.00,,,0.01,Wunderground v.1.15,2013-08-25 14:19:00,
2013-08-25 10:22:00,65.2,60.9,30.47,SSW,192,2.0,4.0,86,0.00,,,0.01,Wunderground v.1.15,2013-08-25 14:22:00,
2013-08-25 10:23:00,65.2,60.9,30.47,SSW,196,2.0,4.0,86,0.00,,,0.01,Wunderground v.1.15,2013-08-25 14:23:00,
2013-08-25 10:25:00,65.4,61.1,30.47,SSW,196,2.0,4.0,86,0.00,,,0.01,Wunderground v.1.15,2013-08-25 14:25:00,
2013-08-25 10:26:00,65.5,61.9,30.47,SSW,196,2.0,4.0,88,0.00,,,0.01,Wunderground v.1.15,2013-08-25 14:26:00,
2013-08-25 10:30:00,66.0,61.0,30.47,WSW,247,2.0,4.0,84,0.00,,,0.01,Wunderground v.1.15,2013-08-25 14:30:00,
2013-08-25 10:31:00,66.0,60.7,30.47,WSW,247,2.0,4.0,83,0.00,,,0.01,Wunderground v.1.15,2013-08-25 14:31:00,
2013-08-25 10:32:00,66.1,60.8,30.47,WSW,247,2.0,4.0,83,0.00,,,0.01,Wunderground v.1.15,2013-08-25 14:32:00,
2013-08-25 10:35:00,66.3,61.0,30.47,WSW,248,1.0,4.0,83,0.00,,,0.01,Wunderground v.1.15,2013-08-25 14:35:00,
2013-08-25 10:37:00,66.3,60.6,30.47,SW,221,1.0,4.0,82,0.00,,,0.01,Wunderground v.1.15,2013-08-25 14:37:00,
2013-08-25 10:39:00,66.3,60.6,30.47,SSW,206,1.0,4.0,82,0.00,,,0.01,Wunderground v.1.15,2013-08-25 14:39:00,
2013-08-25 10:42:00,66.4,60.7,30.47,SSW,205,1.0,4.0,82,0.00,,,0.01,Wunderground v.1.15,2013-08-25 14:42:00,
2013-08-25 10:45:00,66.7,61.4,30.47,SSW,205,1.0,4.0,83,0.00,,,0.01,Wunderground v.1.15,2013-08-25 14:45:00,
2013-08-25 10:46:00,66.8,61.1,30.47,SSW,205,1.0,4.0,82,0.00,,,0.01,Wunderground v.1.15,2013-08-25 14:46:00,
2013-08-25 10:49:00,67.0,60.6,30.47,SSW,204,1.0,4.0,80,0.00,,,0.01,Wunderground v.1.15,2013-08-25 14:49:00,
2013-08-25 10:50:00,67.1,60.7,30.47,SSW,204,1.0,1.0,80,0.00,,,0.01,Wunderground v.1.15,2013-08-25 14:50:00,
2013-08-25 10:52:00,67.2,60.8,30.47,SSW,204,1.0,4.0,80,0.00,,,0.01,Wunderground v.1.15,2013-08-25 14:52:00,
2013-08-25 10:55:00,67.2,60.1,30.47,SSW,204,1.0,4.0,78,0.00,,,0.01,Wunderground v.1.15,2013-08-25 14:55:00,
2013-08-25 10:56:00,67.2,60.1,30.47,SSW,204,1.0,4.0,78,0.00,,,0.01,Wunderground v.1.15,2013-08-25 14:56:00,
2013-08-25 10:59:00,67.4,59.9,30.47,SSW,203,0.0,4.0,77,0.00,,,0.01,Wunderground v.1.15,2013-08-25 14:59:00,
2013-08-25 11:03:00,67.6,60.5,30.47,NNE,17,1.0,4.0,78,0.00,,,0.01,Wunderground v.1.15,2013-08-25 15:03:00,
2013-08-25 11:04:00,67.6,60.1,30.47,NNE,17,1.0,4.0,77,0.00,,,0.01,Wunderground v.1.15,2013-08-25 15:04:00,
2013-08-25 11:06:00,67.7,60.2,30.47,NNE,16,1.0,4.0,77,0.00,,,0.01,Wunderground v.1.15,2013-08-25 15:06:00,
2013-08-25 11:08:00,67.7,60.6,30.47,NNE,16,1.0,4.0,78,0.00,,,0.01,Wunderground v.1.15,2013-08-25 15:08:00,
2013-08-25 11:09:00,67.7,60.6,30.47,NNE,15,1.0,4.0,78,0.00,,,0.01,Wunderground v.1.15,2013-08-25 15:09:00,
2013-08-25 11:13:00,67.9,60.4,30.47,NW,320,1.0,4.0,77,0.00,,,0.01,Wunderground v.1.15,2013-08-25 15:13:00,
2013-08-25 11:14:00,68.0,60.5,30.47,NW,316,1.0,4.0,77,0.00,,,0.01,Wunderground v.1.15,2013-08-25 15:14:00,
2013-08-25 11:15:00,68.1,61.0,30.46,WNW,297,1.0,4.0,78,0.00,,,0.01,Wunderground v.1.15,2013-08-25 15:15:00,
2013-08-25 11:18:00,68.1,60.6,30.46,NW,321,2.0,4.0,77,0.00,,,0.01,Wunderground v.1.15,2013-08-25 15:18:00,
2013-08-25 11:19:00,67.9,60.1,30.46,WSW,250,3.0,5.0,76,0.00,,,0.01,Wunderground v.1.15,2013-08-25 15:19:00,
2013-08-25 11:20:00,67.9,60.1,30.46,West,277,3.0,5.0,76,0.00,,,0.01,Wunderground v.1.15,2013-08-25 15:20:00,
2013-08-25 11:22:00,67.7,59.1,30.46,West,261,3.0,5.0,74,0.00,,,0.01,Wunderground v.1.15,2013-08-25 15:22:00,
2013-08-25 11:25:00,67.6,59.0,30.46,SW,232,4.0,6.0,74,0.00,,,0.01,Wunderground v.1.15,2013-08-25 15:25:00,
2013-08-25 11:28:00,67.6,59.4,30.46,SW,221,4.0,6.0,75,0.00,,,0.01,Wunderground v.1.15,2013-08-25 15:28:00,
2013-08-25 11:31:00,67.8,59.6,30.46,East,100,3.0,4.0,75,0.00,,,0.01,Wunderground v.1.15,2013-08-25 15:31:00,
2013-08-25 11:32:00,67.9,59.3,30.46,East,101,3.0,4.0,74,0.00,,,0.01,Wunderground v.1.15,2013-08-25 15:32:00,
2013-08-25 11:34:00,68.2,59.6,30.46,ESE,106,2.0,5.0,74,0.00,,,0.01,Wunderground v.1.15,2013-08-25 15:34:00,
2013-08-25 11:36:00,68.5,59.5,30.46,SE,130,2.0,5.0,73,0.00,,,0.01,Wunderground v.1.15,2013-08-25 15:36:00,
2013-08-25 11:38:00,68.8,58.6,30.46,SSE,155,2.0,10.0,70,0.00,,,0.01,Wunderground v.1.15,2013-08-25 15:38:00,
2013-08-25 11:39:00,68.9,58.7,30.46,SSE,152,3.0,10.0,70,0.00,,,0.01,Wunderground v.1.15,2013-08-25 15:39:00,
2013-08-25 11:40:00,68.9,58.7,30.46,SSE,154,3.0,3.0,70,0.00,,,0.01,Wunderground v.1.15,2013-08-25 15:40:00,
2013-08-25 11:41:00,69.0,58.8,30.46,SSE,154,3.0,4.0,70,0.00,,,0.01,Wunderground v.1.15,2013-08-25 15:41:00,
2013-08-25 11:45:00,68.9,57.9,30.45,SSE,161,3.0,5.0,68,0.00,,,0.01,Wunderground v.1.15,2013-08-25 15:45:00,
2013-08-25 11:46:00,69.0,58.4,30.45,SE,133,4.0,5.0,69,0.00,,,0.01,Wunderground v.1.15,2013-08-25 15:46:00,
2013-08-25 11:48:00,69.2,59.4,30.46,SSE,163,3.0,5.0,71,0.00,,,0.01,Wunderground v.1.15,2013-08-25 15:48:00,
2013-08-25 11:50:00,69.5,60.1,30.45,SE,126,4.0,6.0,72,0.00,,,0.01,Wunderground v.1.15,2013-08-25 15:50:00,
2013-08-25 11:54:00,69.4,58.0,30.46,SSE,162,5.0,7.0,67,0.00,,,0.01,Wunderground v.1.15,2013-08-25 15:54:00,
2013-08-25 11:56:00,69.3,58.7,30.46,SSE,157,5.0,8.0,69,0.00,,,0.01,Wunderground v.1.15,2013-08-25 15:56:00,
2013-08-25 11:57:00,69.4,58.8,30.46,SSE,165,5.0,8.0,69,0.00,,,0.01,Wunderground v.1.15,2013-08-25 15:57:00,
2013-08-25 12:00:00,69.6,59.8,30.46,South,171,5.0,8.0,71,0.00,,,0.01,Wunderground v.1.15,2013-08-25 16:00:00,
2013-08-25 12:02:00,69.7,58.7,30.45,SSE,151,5.0,8.0,68,0.00,,,0.01,Wunderground v.1.15,2013-08-25 16:02:00,
2013-08-25 12:03:00,69.8,59.6,30.45,South,171,5.0,8.0,70,0.00,,,0.01,Wunderground v.1.15,2013-08-25 16:03:00,
2013-08-25 12:04:00,69.9,58.4,30.45,SSE,161,5.0,8.0,67,0.00,,,0.01,Wunderground v.1.15,2013-08-25 16:04:00,
2013-08-25 12:05:00,70.1,59.0,30.45,SSE,157,5.0,8.0,68,0.00,,,0.01,Wunderground v.1.15,2013-08-25 16:05:00,
2013-08-25 12:08:00,70.3,58.4,30.45,ENE,63,4.0,8.0,66,0.00,,,0.01,Wunderground v.1.15,2013-08-25 16:08:00,
2013-08-25 12:10:00,70.3,57.1,30.46,East,82,5.0,5.0,63,0.00,,,0.01,Wunderground v.1.15,2013-08-25 16:10:00,
2013-08-25 12:13:00,70.3,57.5,30.45,SSE,155,4.0,5.0,64,0.00,,,0.01,Wunderground v.1.15,2013-08-25 16:13:00,
2013-08-25 12:15:00,70.1,57.8,30.45,SE,132,4.0,6.0,65,0.00,,,0.01,Wunderground v.1.15,2013-08-25 16:15:00,
2013-08-25 12:16:00,69.9,58.0,30.45,ESE,115,4.0,6.0,66,0.00,,,0.01,Wunderground v.1.15,2013-08-25 16:16:00,
2013-08-25 12:18:00,69.8,58.3,30.45,ESE,116,4.0,6.0,67,0.00,,,0.01,Wunderground v.1.15,2013-08-25 16:18:00,
2013-08-25 12:20:00,69.8,58.8,30.45,ENE,78,3.0,6.0,68,0.00,,,0.01,Wunderground v.1.15,2013-08-25 16:20:00,
2013-08-25 12:21:00,69.9,57.6,30.45,East,97,3.0,6.0,65,0.00,,,0.01,Wunderground v.1.15,2013-08-25 16:21:00,
2013-08-25 12:23:00,70.0,58.1,30.45,SSE,150,3.0,6.0,66,0.00,,,0.01,Wunderground v.1.15,2013-08-25 16:23:00,
2013-08-25 12:26:00,70.1,57.4,30.45,NE,55,3.0,6.0,64,0.00,,,0.01,Wunderground v.1.15,2013-08-25 16:26:00,
2013-08-25 12:28:00,70.1,56.9,30.45,NE,53,3.0,6.0,63,0.00,,,0.01,Wunderground v.1.15,2013-08-25 16:28:00,
2013-08-25 12:29:00,70.0,56.8,30.45,ENE,57,3.0,6.0,63,0.00,,,0.01,Wunderground v.1.15,2013-08-25 16:29:00,
2013-08-25 12:31:00,69.9,57.6,30.45,East,94,4.0,7.0,65,0.00,,,0.01,Wunderground v.1.15,2013-08-25 16:31:00,
2013-08-25 12:34:00,69.5,58.5,30.45,ESE,121,4.0,8.0,68,0.00,,,0.01,Wunderground v.1.15,2013-08-25 16:34:00,
2013-08-25 12:35:00,69.4,58.4,30.44,ESE,116,4.0,8.0,68,0.00,,,0.01,Wunderground v.1.15,2013-08-25 16:35:00,
2013-08-25 12:37:00,69.2,58.2,30.45,ESE,109,5.0,8.0,68,0.00,,,0.01,Wunderground v.1.15,2013-08-25 16:37:00,
2013-08-25 12:38:00,69.2,59.0,30.45,SSE,163,5.0,8.0,70,0.00,,,0.01,Wunderground v.1.15,2013-08-25 16:38:00,
2013-08-25 12:41:00,69.2,59.0,30.45,East,101,4.0,4.0,70,0.00,,,0.01,Wunderground v.1.15,2013-08-25 16:41:00,
2013-08-25 12:42:00,69.3,58.7,30.45,East,101,4.0,4.0,69,0.00,,,0.01,Wunderground v.1.15,2013-08-25 16:42:00,
2013-08-25 12:43:00,69.5,58.9,30.45,ESE,123,3.0,4.0,69,0.00,,,0.01,Wunderground v.1.15,2013-08-25 16:43:00,
2013-08-25 12:46:00,69.9,56.7,30.44,NE,51,3.0,8.0,63,0.00,,,0.01,Wunderground v.1.15,2013-08-25 16:46:00,
2013-08-25 12:47:00,70.0,57.7,30.45,ESE,103,4.0,8.0,65,0.00,,,0.01,Wunderground v.1.15,2013-08-25 16:47:00,
2013-08-25 12:49:00,70.0,57.3,30.45,NNE,20,4.0,8.0,64,0.00,,,0.01,Wunderground v.1.15,2013-08-25 16:49:00,
2013-08-25 12:50:00,70.0,56.8,30.44,NNE,24,4.0,4.0,63,0.00,,,0.01,Wunderground v.1.15,2013-08-25 16:50:00,
2013-08-25 12:53:00,70.3,58.0,30.44,ESE,110,5.0,7.0,65,0.00,,,0.01,Wunderground v.1.15,2013-08-25 16:53:00,
2013-08-25 12:54:00,70.3,57.5,30.45,ESE,117,6.0,7.0,64,0.00,,,0.01,Wunderground v.1.15,2013-08-25 16:54:00,
2013-08-25 12:56:00,70.2,57.9,30.45,SSE,163,5.0,7.0,65,0.00,,,0.01,Wunderground v.1.15,2013-08-25 16:56:00,
2013-08-25 12:57:00,70.1,57.4,30.45,SSE,162,5.0,7.0,64,0.00,,,0.01,Wunderground v.1.15,2013-08-25 16:57:00,
2013-08-25 13:00:00,70.1,57.4,30.45,ENE,66,3.0,5.0,64,0.00,,,0.01,Wunderground v.1.15,2013-08-25 17:00:00,
2013-08-25 13:02:00,69.9,56.7,30.45,ESE,116,4.0,9.0,63,0.00,,,0.01,Wunderground v.1.15,2013-08-25 17:02:00,
2013-08-25 13:04:00,69.8,57.1,30.45,East,90,4.0,9.0,64,0.00,,,0.01,Wunderground v.1.15,2013-08-25 17:04:00,
2013-08-25 13:05:00,69.9,57.6,30.45,ENE,67,4.0,9.0,65,0.00,,,0.01,Wunderground v.1.15,2013-08-25 17:05:00,
2013-08-25 13:07:00,70.0,56.8,30.44,NNE,28,4.0,9.0,63,0.00,,,0.01,Wunderground v.1.15,2013-08-25 17:07:00,
2013-08-25 13:09:00,70.3,57.1,30.44,NNE,28,4.0,9.0,63,0.00,,,0.01,Wunderground v.1.15,2013-08-25 17:09:00,
2013-08-25 13:10:00,70.4,57.6,30.44,East,86,4.0,4.0,64,0.00,,,0.01,Wunderground v.1.15,2013-08-25 17:10:00,
2013-08-25 13:12:00,70.6,58.3,30.44,East,88,3.0,12.0,65,0.00,,,0.01,Wunderground v.1.15,2013-08-25 17:12:00,
2013-08-25 13:14:00,70.3,57.5,30.44,ESE,117,5.0,12.0,64,0.00,,,0.01,Wunderground v.1.15,2013-08-25 17:14:00,
2013-08-25 13:16:00,70.1,57.8,30.44,ESE,109,4.0,12.0,65,0.00,,,0.01,Wunderground v.1.15,2013-08-25 17:16:00,
2013-08-25 13:17:00,70.0,59.0,30.44,East,99,4.0,12.0,68,0.00,,,0.01,Wunderground v.1.15,2013-08-25 17:17:00,
2013-08-25 13:19:00,69.9,57.6,30.44,NNE,28,5.0,5.0,65,0.00,,,0.01,Wunderground v.1.15,2013-08-25 17:19:00,
2013-08-25 13:23:00,70.1,58.2,30.44,East,85,4.0,6.0,66,0.00,,,0.01,Wunderground v.1.15,2013-08-25 17:23:00,
2013-08-25 13:25:00,70.2,57.9,30.43,East,96,3.0,6.0,65,0.00,,,0.01,Wunderground v.1.15,2013-08-25 17:25:00,
2013-08-25 13:27:00,70.2,57.4,30.43,East,90,4.0,7.0,64,0.00,,,0.01,Wunderground v.1.15,2013-08-25 17:27:00,
2013-08-25 13:28:00,70.2,57.0,30.43,SE,136,4.0,7.0,63,0.00,,,0.01,Wunderground v.1.15,2013-08-25 17:28:00,
2013-08-25 13:31:00,70.3,58.8,30.43,SSE,163,4.0,5.0,67,0.00,,,0.01,Wunderground v.1.15,2013-08-25 17:31:00,
2013-08-25 13:34:00,70.5,59.0,30.43,East,101,4.0,5.0,67,0.00,,,0.01,Wunderground v.1.15,2013-08-25 17:34:00,
2013-08-25 13:36:00,70.8,58.4,30.42,South,171,4.0,5.0,65,0.00,,,0.01,Wunderground v.1.15,2013-08-25 17:36:00,
2013-08-25 13:37:00,71.0,59.5,30.43,SSE,163,4.0,5.0,67,0.00,,,0.01,Wunderground v.1.15,2013-08-25 17:37:00,
2013-08-25 13:39:00,71.2,58.8,30.42,ESE,121,4.0,5.0,65,0.00,,,0.01,Wunderground v.1.15,2013-08-25 17:39:00,
2013-08-25 13:41:00,71.4,57.2,30.42,ESE,105,4.0,10.0,61,0.00,,,0.01,Wunderground v.1.15,2013-08-25 17:41:00,
2013-08-25 13:43:00,71.2,57.5,30.42,NE,41,4.0,10.0,62,0.00,,,0.01,Wunderground v.1.15,2013-08-25 17:43:00,
2013-08-25 13:44:00,71.1,57.4,30.42,ESE,104,4.0,10.0,62,0.00,,,0.01,Wunderground v.1.15,2013-08-25 17:44:00,
2013-08-25 13:45:00,71.1,57.0,30.42,West,273,4.0,10.0,61,0.00,,,0.01,Wunderground v.1.15,2013-08-25 17:45:00,
2013-08-25 13:49:00,71.6,58.3,30.42,South,190,4.0,10.0,63,0.00,,,0.01,Wunderground v.1.15,2013-08-25 17:49:00,
2013-08-25 13:51:00,72.1,61.0,30.42,SE,145,4.0,5.0,68,0.00,,,0.01,Wunderground v.1.15,2013-08-25 17:51:00,
2013-08-25 13:53:00,72.2,58.9,30.42,South,169,3.0,5.0,63,0.00,,,0.01,Wunderground v.1.15,2013-08-25 17:53:00,
2013-08-25 13:55:00,72.2,58.9,30.42,SSE,156,3.0,5.0,63,0.00,,,0.01,Wunderground v.1.15,2013-08-25 17:55:00,
2013-08-25 13:58:00,72.2,58.5,30.41,SSE,163,4.0,5.0,62,0.00,,,0.01,Wunderground v.1.15,2013-08-25 17:58:00,
2013-08-25 14:00:00,72.3,60.3,30.41,SSE,167,4.0,5.0,66,0.00,,,0.01,Wunderground v.1.15,2013-08-25 18:00:00,
2013-08-25 14:03:00,72.4,59.1,30.41,SSE,151,5.0,7.0,63,0.00,,,0.01,Wunderground v.1.15,2013-08-25 18:03:00,
2013-08-25 14:04:00,72.2,57.5,30.41,South,175,5.0,7.0,60,0.00,,,0.01,Wunderground v.1.15,2013-08-25 18:04:00,
2013-08-25 14:06:00,72.1,58.8,30.41,South,191,5.0,7.0,63,0.00,,,0.01,Wunderground v.1.15,2013-08-25 18:06:00,
2013-08-25 14:07:00,72.1,58.4,30.41,South,185,5.0,7.0,62,0.00,,,0.01,Wunderground v.1.15,2013-08-25 18:07:00,
2013-08-25 14:08:00,72.1,58.4,30.41,SSE,155,5.0,7.0,62,0.00,,,0.01,Wunderground v.1.15,2013-08-25 18:08:00,
2013-08-25 14:10:00,72.3,60.3,30.41,SE,132,4.0,5.0,66,0.00,,,0.01,Wunderground v.1.15,2013-08-25 18:10:00,
2013-08-25 14:14:00,72.6,59.3,30.41,East,93,4.0,9.0,63,0.00,,,0.01,Wunderground v.1.15,2013-08-25 18:14:00,
2013-08-25 14:15:00,72.6,58.8,30.41,East,90,4.0,9.0,62,0.00,,,0.01,Wunderground v.1.15,2013-08-25 18:15:00,
2013-08-25 14:17:00,72.2,58.0,30.41,ESE,115,5.0,9.0,61,0.00,,,0.01,Wunderground v.1.15,2013-08-25 18:17:00,
2013-08-25 14:19:00,71.8,58.1,30.41,East,90,6.0,9.0,62,0.00,,,0.01,Wunderground v.1.15,2013-08-25 18:19:00,
2013-08-25 14:21:00,71.7,58.0,30.41,ESE,114,7.0,8.0,62,0.00,,,0.01,Wunderground v.1.15,2013-08-25 18:21:00,
2013-08-25 14:22:00,71.6,57.9,30.41,ESE,108,7.0,8.0,62,0.00,,,0.01,Wunderground v.1.15,2013-08-25 18:22:00,
2013-08-25 14:24:00,71.6,58.3,30.41,East,101,7.0,8.0,63,0.00,,,0.01,Wunderground v.1.15,2013-08-25 18:24:00,
2013-08-25 14:25:00,71.7,59.7,30.41,ENE,57,7.0,8.0,66,0.00,,,0.01,Wunderground v.1.15,2013-08-25 18:25:00,
2013-08-25 14:26:00,71.9,58.6,30.41,SE,145,6.0,8.0,63,0.00,,,0.01,Wunderground v.1.15,2013-08-25 18:26:00,
2013-08-25 14:30:00,71.9,57.7,30.41,SSE,150,5.0,5.0,61,0.00,,,0.01,Wunderground v.1.15,2013-08-25 18:30:00,
2013-08-25 14:31:00,71.8,59.0,30.41,SE,141,5.0,6.0,64,0.00,,,0.01,Wunderground v.1.15,2013-08-25 18:31:00,
2013-08-25 14:33:00,71.7,58.9,30.41,SSE,149,5.0,7.0,64,0.00,,,0.01,Wunderground v.1.15,2013-08-25 18:33:00,
2013-08-25 14:36:00,71.9,59.1,30.41,SSE,153,5.0,7.0,64,0.00,,,0.01,Wunderground v.1.15,2013-08-25 18:36:00,
2013-08-25 14:37:00,72.0,59.2,30.41,ESE,114,6.0,7.0,64,0.00,,,0.01,Wunderground v.1.15,2013-08-25 18:37:00,
2013-08-25 14:39:00,72.1,60.1,30.41,SSE,165,5.0,7.0,66,0.00,,,0.01,Wunderground v.1.15,2013-08-25 18:39:00,
2013-08-25 14:42:00,72.5,58.7,30.41,ESE,107,4.0,5.0,62,0.00,,,0.01,Wunderground v.1.15,2013-08-25 18:42:00,
2013-08-25 14:45:00,72.3,59.0,30.41,SE,135,4.0,5.0,63,0.00,,,0.01,Wunderground v.1.15,2013-08-25 18:45:00,
2013-08-25 14:46:00,72.2,58.5,30.41,SSE,147,4.0,6.0,62,0.00,,,0.01,Wunderground v.1.15,2013-08-25 18:46:00,
2013-08-25 14:47:00,72.1,59.2,30.41,ESE,107,3.0,6.0,64,0.00,,,0.01,Wunderground v.1.15,2013-08-25 18:47:00,
2013-08-25 14:48:00,71.9,58.6,30.41,ESE,103,3.0,6.0,63,0.00,,,0.01,Wunderground v.1.15,2013-08-25 18:48:00,
2013-08-25 14:51:00,71.3,58.5,30.42,East,89,4.0,7.0,64,0.00,,,0.01,Wunderground v.1.15,2013-08-25 18:51:00,
2013-08-25 14:52:00,71.1,58.7,30.41,ESE,108,5.0,9.0,65,0.00,,,0.01,Wunderground v.1.15,2013-08-25 18:52:00,
2013-08-25 14:53:00,70.9,58.1,30.41,SSE,158,5.0,9.0,64,0.00,,,0.01,Wunderground v.1.15,2013-08-25 18:53:00,
2013-08-25 14:56:00,70.6,57.4,30.41,ENE,65,5.0,9.0,63,0.00,,,0.01,Wunderground v.1.15,2013-08-25 18:56:00,
2013-08-25 14:57:00,70.6,56.9,30.41,East,91,5.0,9.0,62,0.00,,,0.01,Wunderground v.1.15,2013-08-25 18:57:00,
2013-08-25 14:59:00,70.7,57.9,30.41,ESE,106,5.0,9.0,64,0.00,,,0.01,Wunderground v.1.15,2013-08-25 18:59:00,
2013-08-25 15:02:00,71.1,57.0,30.41,ESE,114,5.0,7.0,61,0.00,,,0.01,Wunderground v.1.15,2013-08-25 19:02:00,
2013-08-25 15:03:00,71.2,56.6,30.41,ENE,77,5.0,8.0,60,0.00,,,0.01,Wunderground v.1.15,2013-08-25 19:03:00,
2013-08-25 15:05:00,71.3,54.8,30.41,ENE,69,6.0,12.0,56,0.00,,,0.01,Wunderground v.1.15,2013-08-25 19:05:00,
2013-08-25 15:06:00,71.4,58.1,30.41,SE,126,7.0,12.0,63,0.00,,,0.01,Wunderground v.1.15,2013-08-25 19:06:00,
2013-08-25 15:08:00,71.5,56.9,30.41,ESE,117,7.0,12.0,60,0.00,,,0.01,Wunderground v.1.15,2013-08-25 19:08:00,
2013-08-25 15:13:00,71.9,59.1,30.40,East,99,7.0,7.0,64,0.00,,,0.01,Wunderground v.1.15,2013-08-25 19:13:00,
2013-08-25 15:14:00,72.1,57.9,30.40,SSE,167,6.0,7.0,61,0.00,,,0.01,Wunderground v.1.15,2013-08-25 19:14:00,
2013-08-25 15:15:00,72.3,58.5,30.40,SSE,158,5.0,7.0,62,0.00,,,0.01,Wunderground v.1.15,2013-08-25 19:15:00,
2013-08-25 15:18:00,72.7,58.5,30.40,East,95,5.0,13.0,61,0.00,,,0.01,Wunderground v.1.15,2013-08-25 19:18:00,
2013-08-25 15:20:00,72.5,56.9,30.40,ESE,106,5.0,5.0,58,0.00,,,0.01,Wunderground v.1.15,2013-08-25 19:20:00,
2013-08-25 15:24:00,72.2,57.1,30.39,East,101,6.0,8.0,59,0.00,,,0.01,Wunderground v.1.15,2013-08-25 19:24:00,
2013-08-25 15:25:00,72.2,57.1,30.40,ESE,117,6.0,9.0,59,0.00,,,0.01,Wunderground v.1.15,2013-08-25 19:25:00,
2013-08-25 15:26:00,72.1,57.4,30.40,ESE,111,7.0,11.0,60,0.00,,,0.01,Wunderground v.1.15,2013-08-25 19:26:00,
2013-08-25 15:27:00,72.0,56.4,30.39,SE,132,7.0,11.0,58,0.00,,,0.01,Wunderground v.1.15,2013-08-25 19:27:00,
2013-08-25 15:32:00,71.7,56.6,30.39,NE,56,7.0,7.0,59,0.00,,,0.01,Wunderground v.1.15,2013-08-25 19:32:00,
2013-08-25 15:33:00,71.7,57.1,30.39,East,93,6.0,7.0,60,0.00,,,0.01,Wunderground v.1.15,2013-08-25 19:33:00,
2013-08-25 15:34:00,71.9,57.3,30.39,NE,49,6.0,7.0,60,0.00,,,0.01,Wunderground v.1.15,2013-08-25 19:34:00,
2013-08-25 15:36:00,72.1,58.4,30.39,ESE,109,6.0,11.0,62,0.00,,,0.01,Wunderground v.1.15,2013-08-25 19:36:00,
2013-08-25 15:37:00,72.1,58.8,30.39,ESE,107,6.0,11.0,63,0.00,,,0.01,Wunderground v.1.15,2013-08-25 19:37:00,
2013-08-25 15:39:00,71.8,59.0,30.39,SE,127,6.0,11.0,64,0.00,,,0.01,Wunderground v.1.15,2013-08-25 19:39:00,
2013-08-25 15:40:00,71.6,58.8,30.39,ENE,72,6.0,6.0,64,0.00,,,0.01,Wunderground v.1.15,2013-08-25 19:40:00,
2013-08-25 15:43:00,71.1,58.7,30.39,East,86,7.0,11.0,65,0.00,,,0.01,Wunderground v.1.15,2013-08-25 19:43:00,
2013-08-25 15:46:00,70.6,58.7,30.39,SE,128,7.0,11.0,66,0.00,,,0.01,Wunderground v.1.15,2013-08-25 19:46:00,
2013-08-25 15:47:00,70.5,59.0,30.39,SSE,148,7.0,11.0,67,0.00,,,0.01,Wunderground v.1.15,2013-08-25 19:47:00,
2013-08-25 15:49:00,70.4,59.3,30.39,ESE,114,6.0,11.0,68,0.00,,,0.01,Wunderground v.1.15,2013-08-25 19:49:00,
2013-08-25 15:50:00,70.4,58.9,30.39,ESE,113,6.0,6.0,67,0.00,,,0.01,Wunderground v.1.15,2013-08-25 19:50:00,
2013-08-25 15:54:00,70.8,59.3,30.39,East,86,4.0,6.0,67,0.00,,,0.01,Wunderground v.1.15,2013-08-25 19:54:00,
2013-08-25 15:55:00,71.0,59.5,30.39,ESE,111,3.0,6.0,67,0.00,,,0.01,Wunderground v.1.15,2013-08-25 19:55:00,
2013-08-25 15:56:00,71.1,60.0,30.39,East,88,3.0,6.0,68,0.00,,,0.01,Wunderground v.1.15,2013-08-25 19:56:00,
2013-08-25 15:59:00,71.6,57.9,30.39,ENE,69,4.0,10.0,62,0.00,,,0.01,Wunderground v.1.15,2013-08-25 19:59:00,
2013-08-25 16:00:00,71.8,56.7,30.39,NE,48,4.0,6.0,59,0.00,,,0.01,Wunderground v.1.15,2013-08-25 20:00:00,
2013-08-25 16:01:00,71.8,56.7,30.39,NNE,16,5.0,7.0,59,0.00,,,0.01,Wunderground v.1.15,2013-08-25 20:01:00,
2013-08-25 16:05:00,72.0,57.8,30.39,ESE,107,6.0,10.0,61,0.00,,,0.01,Wunderground v.1.15,2013-08-25 20:05:00,
2013-08-25 16:07:00,71.9,57.7,30.38,ESE,112,7.0,10.0,61,0.00,,,0.01,Wunderground v.1.15,2013-08-25 20:07:00,
2013-08-25 16:08:00,72.0,58.3,30.38,SE,146,7.0,10.0,62,0.00,,,0.01,Wunderground v.1.15,2013-08-25 20:08:00,
2013-08-25 16:11:00,72.2,58.5,30.38,East,99,6.0,6.0,62,0.00,,,0.01,Wunderground v.1.15,2013-08-25 20:11:00,
2013-08-25 16:12:00,72.3,58.5,30.38,SSE,165,6.0,6.0,62,0.00,,,0.01,Wunderground v.1.15,2013-08-25 20:12:00,
2013-08-25 16:13:00,72.4,58.6,30.38,SSE,155,5.0,6.0,62,0.00,,,0.01,Wunderground v.1.15,2013-08-25 20:13:00,
2013-08-25 16:16:00,72.4,59.5,30.38,SE,141,5.0,6.0,64,0.00,,,0.01,Wunderground v.1.15,2013-08-25 20:16:00,
2013-08-25 16:17:00,72.4,59.1,30.38,ESE,122,4.0,6.0,63,0.00,,,0.01,Wunderground v.1.15,2013-08-25 20:17:00,
2013-08-25 16:20:00,72.0,59.2,30.38,East,98,5.0,5.0,64,0.00,,,0.01,Wunderground v.1.15,2013-08-25 20:20:00,
2013-08-25 16:22:00,71.7,59.7,30.38,SSE,155,5.0,6.0,66,0.00,,,0.01,Wunderground v.1.15,2013-08-25 20:22:00,
2013-08-25 16:23:00,71.7,59.7,30.38,ESE,107,4.0,6.0,66,0.00,,,0.01,Wunderground v.1.15,2013-08-25 20:23:00,
2013-08-25 16:26:00,71.7,60.6,30.38,ESE,106,4.0,6.0,68,0.00,,,0.01,Wunderground v.1.15,2013-08-25 20:26:00,
2013-08-25 16:28:00,71.7,60.2,30.38,ESE,117,4.0,6.0,67,0.00,,,0.01,Wunderground v.1.15,2013-08-25 20:28:00,
2013-08-25 16:29:00,71.8,61.1,30.38,ESE,105,4.0,10.0,69,0.00,,,0.01,Wunderground v.1.15,2013-08-25 20:29:00,
2013-08-25 16:31:00,71.7,60.2,30.38,East,88,4.0,8.0,67,0.00,,,0.01,Wunderground v.1.15,2013-08-25 20:31:00,
2013-08-25 16:32:00,71.7,60.2,30.38,South,185,4.0,8.0,67,0.00,,,0.01,Wunderground v.1.15,2013-08-25 20:32:00,
2013-08-25 16:34:00,71.8,60.2,30.38,SE,146,4.0,8.0,67,0.00,,,0.01,Wunderground v.1.15,2013-08-25 20:34:00,
2013-08-25 16:37:00,71.9,60.3,30.38,East,101,5.0,8.0,67,0.00,,,0.01,Wunderground v.1.15,2013-08-25 20:37:00,
2013-08-25 16:40:00,71.9,60.3,30.38,SE,132,5.0,5.0,67,0.00,,,0.01,Wunderground v.1.15,2013-08-25 20:40:00,
2013-08-25 16:43:00,71.9,59.9,30.38,ESE,117,5.0,6.0,66,0.00,,,0.01,Wunderground v.1.15,2013-08-25 20:43:00,
2013-08-25 16:45:00,71.9,59.9,30.38,ESE,117,5.0,6.0,66,0.00,,,0.01,Wunderground v.1.15,2013-08-25 20:45:00,
2013-08-25 16:46:00,71.9,59.9,30.38,SSE,153,5.0,6.0,66,0.00,,,0.01,Wunderground v.1.15,2013-08-25 20:46:00,
2013-08-25 16:48:00,71.8,59.8,30.38,SSE,163,5.0,6.0,66,0.00,,,0.01,Wunderground v.1.15,2013-08-25 20:48:00,
2013-08-25 16:49:00,71.6,59.6,30.38,ESE,110,5.0,7.0,66,0.00,,,0.01,Wunderground v.1.15,2013-08-25 20:49:00,
2013-08-25 16:53:00,71.3,59.8,30.38,SSE,154,4.0,5.0,67,0.00,,,0.01,Wunderground v.1.15,2013-08-25 20:53:00,
2013-08-25 16:54:00,71.3,60.2,30.38,SSE,155,4.0,5.0,68,0.00,,,0.01,Wunderground v.1.15,2013-08-25 20:54:00,
2013-08-25 16:55:00,71.3,60.2,30.38,East,92,4.0,5.0,68,0.00,,,0.01,Wunderground v.1.15,2013-08-25 20:55:00,
2013-08-25 16:56:00,71.5,60.8,30.38,East,95,4.0,5.0,69,0.00,,,0.01,Wunderground v.1.15,2013-08-25 20:56:00,
2013-08-25 16:58:00,71.7,60.6,30.38,ESE,110,3.0,5.0,68,0.00,,,0.01,Wunderground v.1.15,2013-08-25 20:58:00,
2013-08-25 16:59:00,71.7,60.2,30.38,East,84,3.0,8.0,67,0.00,,,0.01,Wunderground v.1.15,2013-08-25 20:59:00,
2013-08-25 17:00:00,71.8,60.2,30.38,ESE,119,4.0,11.0,67,0.00,,,0.01,Wunderground v.1.15,2013-08-25 21:00:00,
2013-08-25 17:03:00,71.6,59.6,30.37,ESE,119,5.0,11.0,66,0.00,,,0.01,Wunderground v.1.15,2013-08-25 21:03:00,
2013-08-25 17:06:00,71.4,59.4,30.38,SSE,166,5.0,11.0,66,0.00,,,0.01,Wunderground v.1.15,2013-08-25 21:06:00,
2013-08-25 17:08:00,71.4,59.4,30.38,ESE,103,5.0,11.0,66,0.00,,,0.01,Wunderground v.1.15,2013-08-25 21:08:00,
2013-08-25 17:09:00,71.4,59.4,30.38,ENE,68,5.0,11.0,66,0.00,,,0.01,Wunderground v.1.15,2013-08-25 21:09:00,
2013-08-25 17:10:00,71.3,58.9,30.38,ENE,73,4.0,5.0,65,0.00,,,0.01,Wunderground v.1.15,2013-08-25 21:10:00,
2013-08-25 17:12:00,71.3,59.8,30.38,ESE,116,4.0,6.0,67,0.00,,,0.01,Wunderground v.1.15,2013-08-25 21:12:00,
2013-08-25 17:33:00,71.5,60.0,30.38,ESE,119,6.0,7.0,67,0.00,,,0.01,Wunderground v.1.15,2013-08-25 21:33:00,
2013-08-25 17:34:00,71.5,60.4,30.38,SE,136,6.0,7.0,68,0.00,,,0.01,Wunderground v.1.15,2013-08-25 21:34:00,
2013-08-25 17:36:00,71.4,60.7,30.38,SSE,153,5.0,7.0,69,0.00,,,0.01,Wunderground v.1.15,2013-08-25 21:36:00,
2013-08-25 17:37:00,71.5,61.2,30.38,SSE,155,5.0,7.0,70,0.00,,,0.01,Wunderground v.1.15,2013-08-25 21:37:00,
2013-08-25 17:38:00,71.5,61.2,30.38,ESE,118,5.0,7.0,70,0.00,,,0.01,Wunderground v.1.15,2013-08-25 21:38:00,
2013-08-25 17:39:00,71.5,60.8,30.38,South,177,5.0,7.0,69,0.00,,,0.01,Wunderground v.1.15,2013-08-25 21:39:00,
2013-08-25 17:40:00,71.6,61.3,30.37,SSE,149,4.0,7.0,70,0.00,,,0.01,Wunderground v.1.15,2013-08-25 21:40:00,
2013-08-25 17:43:00,71.7,60.6,30.38,SSE,148,4.0,4.0,68,0.00,,,0.01,Wunderground v.1.15,2013-08-25 21:43:00,
2013-08-25 17:45:00,71.7,60.6,30.38,SSE,163,3.0,4.0,68,0.00,,,0.01,Wunderground v.1.15,2013-08-25 21:45:00,
2013-08-25 17:46:00,71.7,61.0,30.38,ESE,110,4.0,5.0,69,0.00,,,0.01,Wunderground v.1.15,2013-08-25 21:46:00,
2013-08-25 17:47:00,71.6,60.9,30.38,SSE,157,4.0,5.0,69,0.00,,,0.01,Wunderground v.1.15,2013-08-25 21:47:00,
2013-08-25 17:49:00,71.5,60.4,30.38,SSE,158,4.0,5.0,68,0.00,,,0.01,Wunderground v.1.15,2013-08-25 21:49:00,
2013-08-25 17:52:00,71.2,60.1,30.38,ESE,104,5.0,5.0,68,0.00,,,0.01,Wunderground v.1.15,2013-08-25 21:52:00,
2013-08-25 17:53:00,71.1,60.4,30.38,SSE,162,5.0,6.0,69,0.00,,,0.01,Wunderground v.1.15,2013-08-25 21:53:00,
2013-08-25 17:57:00,70.9,60.6,30.37,ESE,123,5.0,7.0,70,0.00,,,0.01,Wunderground v.1.15,2013-08-25 21:57:00,
2013-08-25 17:58:00,70.9,60.2,30.37,SE,129,5.0,7.0,69,0.00,,,0.01,Wunderground v.1.15,2013-08-25 21:58:00,
2013-08-25 17:59:00,70.8,60.5,30.37,SE,146,4.0,7.0,70,0.00,,,0.01,Wunderground v.1.15,2013-08-25 21:59:00,
2013-08-25 18:02:00,70.7,60.0,30.38,SE,140,4.0,5.0,69,0.00,,,0.01,Wunderground v.1.15,2013-08-25 22:02:00,
2013-08-25 18:04:00,70.7,60.4,30.38,ESE,117,3.0,5.0,70,0.00,,,0.01,Wunderground v.1.15,2013-08-25 22:04:00,
2013-08-25 18:05:00,70.7,60.8,30.38,ESE,106,3.0,5.0,71,0.00,,,0.01,Wunderground v.1.15,2013-08-25 22:05:00,
2013-08-25 18:06:00,70.7,60.8,30.38,SSE,155,3.0,5.0,71,0.00,,,0.01,Wunderground v.1.15,2013-08-25 22:06:00,
2013-08-25 18:09:00,70.8,60.5,30.38,SSE,154,3.0,8.0,70,0.00,,,0.01,Wunderground v.1.15,2013-08-25 22:09:00,
2013-08-25 18:11:00,70.8,60.5,30.38,SSW,212,3.0,4.0,70,0.00,,,0.01,Wunderground v.1.15,2013-08-25 22:11:00,
2013-08-25 18:12:00,70.9,60.6,30.38,ESE,107,3.0,5.0,70,0.00,,,0.01,Wunderground v.1.15,2013-08-25 22:12:00,
2013-08-25 18:15:00,71.0,60.7,30.38,SSE,165,3.0,5.0,70,0.00,,,0.01,Wunderground v.1.15,2013-08-25 22:15:00,
2013-08-25 18:16:00,71.0,60.7,30.38,SSE,156,3.0,5.0,70,0.00,,,0.01,Wunderground v.1.15,2013-08-25 22:16:00,
2013-08-25 18:17:00,71.1,60.8,30.38,SSE,156,3.0,5.0,70,0.00,,,0.01,Wunderground v.1.15,2013-08-25 22:17:00,
2013-08-25 18:18:00,71.1,61.2,30.38,SE,146,3.0,5.0,71,0.00,,,0.01,Wunderground v.1.15,2013-08-25 22:18:00,
2013-08-25 18:20:00,71.2,60.9,30.38,East,86,2.0,5.0,70,0.00,,,0.01,Wunderground v.1.15,2013-08-25 22:20:00,
2013-08-25 18:22:00,71.2,60.5,30.38,SE,131,3.0,5.0,69,0.00,,,0.01,Wunderground v.1.15,2013-08-25 22:22:00,
2013-08-25 18:23:00,71.1,60.4,30.38,East,96,3.0,6.0,69,0.00,,,0.01,Wunderground v.1.15,2013-08-25 22:23:00,
2013-08-25 18:24:00,71.1,60.4,30.38,ESE,112,3.0,6.0,69,0.00,,,0.01,Wunderground v.1.15,2013-08-25 22:24:00,
2013-08-25 18:26:00,71.0,60.3,30.38,ESE,103,3.0,6.0,69,0.00,,,0.01,Wunderground v.1.15,2013-08-25 22:26:00,
2013-08-25 18:28:00,70.9,60.6,30.38,ESE,120,4.0,6.0,70,0.00,,,0.01,Wunderground v.1.15,2013-08-25 22:28:00,
2013-08-25 18:29:00,70.9,60.2,30.38,ESE,102,5.0,7.0,69,0.00,,,0.01,Wunderground v.1.15,2013-08-25 22:29:00,
2013-08-25 18:34:00,70.7,60.4,30.39,ESE,113,5.0,6.0,70,0.00,,,0.01,Wunderground v.1.15,2013-08-25 22:34:00,
2013-08-25 18:35:00,70.7,60.4,30.38,ESE,107,5.0,6.0,70,0.00,,,0.01,Wunderground v.1.15,2013-08-25 22:35:00,
2013-08-25 18:36:00,70.7,60.4,30.39,ESE,106,5.0,6.0,70,0.00,,,0.01,Wunderground v.1.15,2013-08-25 22:36:00,
2013-08-25 18:39:00,70.8,60.1,30.39,East,87,4.0,6.0,69,0.00,,,0.01,Wunderground v.1.15,2013-08-25 22:39:00,
2013-08-25 18:40:00,70.8,59.7,30.39,East,88,4.0,5.0,68,0.00,,,0.01,Wunderground v.1.15,2013-08-25 22:40:00,
2013-08-25 18:41:00,70.9,60.2,30.39,East,83,4.0,7.0,69,0.00,,,0.01,Wunderground v.1.15,2013-08-25 22:41:00,
2013-08-25 18:42:00,70.9,60.2,30.39,East,101,4.0,8.0,69,0.00,,,0.01,Wunderground v.1.15,2013-08-25 22:42:00,
2013-08-25 18:43:00,70.9,59.4,30.39,NE,55,5.0,8.0,67,0.00,,,0.01,Wunderground v.1.15,2013-08-25 22:43:00,
2013-08-25 18:44:00,70.8,59.3,30.39,East,83,5.0,9.0,67,0.00,,,0.01,Wunderground v.1.15,2013-08-25 22:44:00,
2013-08-25 18:46:00,70.7,59.2,30.39,East,80,6.0,9.0,67,0.00,,,0.01,Wunderground v.1.15,2013-08-25 22:46:00,
2013-08-25 18:48:00,70.6,59.9,30.39,East,96,7.0,9.0,69,0.00,,,0.01,Wunderground v.1.15,2013-08-25 22:48:00,
2013-08-25 18:50:00,70.6,59.9,30.38,East,86,7.0,7.0,69,0.00,,,0.01,Wunderground v.1.15,2013-08-25 22:50:00,
2013-08-25 18:51:00,70.5,60.2,30.38,ESE,105,7.0,7.0,70,0.00,,,0.01,Wunderground v.1.15,2013-08-25 22:51:00,
2013-08-25 18:52:00,70.5,60.2,30.38,ESE,113,6.0,7.0,70,0.00,,,0.01,Wunderground v.1.15,2013-08-25 22:52:00,
2013-08-25 18:53:00,70.5,59.4,30.38,East,94,6.0,8.0,68,0.00,,,0.01,Wunderground v.1.15,2013-08-25 22:53:00,
2013-08-25 18:54:00,70.4,59.7,30.38,East,97,6.0,8.0,69,0.00,,,0.01,Wunderground v.1.15,2013-08-25 22:54:00,
2013-08-25 18:56:00,70.3,60.1,30.38,ENE,78,5.0,8.0,70,0.00,,,0.01,Wunderground v.1.15,2013-08-25 22:56:00,
2013-08-25 18:59:00,70.1,59.9,30.38,East,91,5.0,8.0,70,0.00,,,0.01,Wunderground v.1.15,2013-08-25 22:59:00,
2013-08-25 19:00:00,70.1,59.9,30.38,ENE,77,5.0,5.0,70,0.00,,,0.01,Wunderground v.1.15,2013-08-25 23:00:00,
2013-08-25 19:01:00,70.0,60.2,30.38,ENE,73,5.0,5.0,71,0.00,,,0.01,Wunderground v.1.15,2013-08-25 23:01:00,
2013-08-25 19:03:00,69.9,60.1,30.38,ENE,73,5.0,5.0,71,0.00,,,0.01,Wunderground v.1.15,2013-08-25 23:03:00,
2013-08-25 19:05:00,69.8,60.0,30.38,ESE,106,5.0,5.0,71,0.00,,,0.01,Wunderground v.1.15,2013-08-25 23:05:00,
2013-08-25 19:06:00,69.7,59.9,30.38,ENE,71,5.0,5.0,71,0.00,,,0.01,Wunderground v.1.15,2013-08-25 23:06:00,
2013-08-25 19:08:00,69.6,60.2,30.38,East,80,4.0,5.0,72,0.00,,,0.01,Wunderground v.1.15,2013-08-25 23:08:00,
2013-08-25 19:09:00,69.5,60.5,30.38,East,80,4.0,5.0,73,0.00,,,0.01,Wunderground v.1.15,2013-08-25 23:09:00,
2013-08-25 19:12:00,69.5,60.1,30.38,East,93,3.0,5.0,72,0.00,,,0.01,Wunderground v.1.15,2013-08-25 23:12:00,
2013-08-25 19:13:00,69.4,60.4,30.38,East,96,3.0,5.0,73,0.00,,,0.01,Wunderground v.1.15,2013-08-25 23:13:00,
2013-08-25 19:14:00,69.4,60.4,30.38,East,96,3.0,5.0,73,0.00,,,0.01,Wunderground v.1.15,2013-08-25 23:14:00,
2013-08-25 19:15:00,69.4,60.4,30.38,East,96,3.0,5.0,73,0.00,,,0.01,Wunderground v.1.15,2013-08-25 23:15:00,
2013-08-25 19:18:00,69.3,60.7,30.38,East,96,2.0,5.0,74,0.00,,,0.01,Wunderground v.1.15,2013-08-25 23:18:00,
2013-08-25 19:20:00,69.3,60.7,30.38,East,96,1.0,4.0,74,0.00,,,0.01,Wunderground v.1.15,2013-08-25 23:20:00,
2013-08-25 19:21:00,69.3,60.7,30.38,East,96,1.0,4.0,74,0.00,,,0.01,Wunderground v.1.15,2013-08-25 23:21:00,
2013-08-25 19:23:00,69.3,60.7,30.38,East,101,1.0,4.0,74,0.00,,,0.01,Wunderground v.1.15,2013-08-25 23:23:00,
2013-08-25 19:25:00,69.3,60.7,30.38,ESE,105,1.0,4.0,74,0.00,,,0.01,Wunderground v.1.15,2013-08-25 23:25:00,
2013-08-25 19:26:00,69.2,60.9,30.38,ESE,105,1.0,4.0,75,0.00,,,0.01,Wunderground v.1.15,2013-08-25 23:26:00,
2013-08-25 19:28:00,69.2,60.9,30.38,ESE,105,1.0,4.0,75,0.00,,,0.01,Wunderground v.1.15,2013-08-25 23:28:00,
2013-08-25 19:31:00,69.2,60.9,30.38,ESE,105,1.0,4.0,75,0.00,,,0.01,Wunderground v.1.15,2013-08-25 23:31:00,
2013-08-25 19:32:00,69.2,60.9,30.38,East,79,1.0,4.0,75,0.00,,,0.01,Wunderground v.1.15,2013-08-25 23:32:00,
2013-08-25 19:33:00,69.2,60.6,30.38,ESE,105,1.0,4.0,74,0.00,,,0.01,Wunderground v.1.15,2013-08-25 23:33:00,
2013-08-25 19:35:00,69.2,60.6,30.38,East,98,2.0,5.0,74,0.00,,,0.01,Wunderground v.1.15,2013-08-25 23:35:00,
2013-08-25 19:38:00,69.1,60.5,30.38,East,100,3.0,5.0,74,0.00,,,0.01,Wunderground v.1.15,2013-08-25 23:38:00,
2013-08-25 19:39:00,69.0,60.4,30.38,East,100,3.0,5.0,74,0.00,,,0.01,Wunderground v.1.15,2013-08-25 23:39:00,
2013-08-25 19:40:00,69.0,60.7,30.38,East,94,3.0,4.0,75,0.00,,,0.01,Wunderground v.1.15,2013-08-25 23:40:00,
2013-08-25 19:43:00,68.9,60.6,30.38,East,94,3.0,4.0,75,0.00,,,0.01,Wunderground v.1.15,2013-08-25 23:43:00,
2013-08-25 19:44:00,68.9,60.3,30.38,East,94,3.0,4.0,74,0.00,,,0.01,Wunderground v.1.15,2013-08-25 23:44:00,
2013-08-25 19:46:00,68.9,60.3,30.38,East,94,2.0,4.0,74,0.00,,,0.01,Wunderground v.1.15,2013-08-25 23:46:00,
2013-08-25 19:48:00,68.8,60.6,30.38,East,94,1.0,4.0,75,0.00,,,0.01,Wunderground v.1.15,2013-08-25 23:48:00,
2013-08-25 19:49:00,68.8,60.6,30.38,East,94,1.0,4.0,75,0.00,,,0.01,Wunderground v.1.15,2013-08-25 23:49:00,
2013-08-25 19:51:00,68.7,60.8,30.38,East,95,1.0,4.0,76,0.00,,,0.01,Wunderground v.1.15,2013-08-25 23:51:00,
2013-08-25 19:53:00,68.6,60.4,30.38,East,95,1.0,4.0,75,0.00,,,0.01,Wunderground v.1.15,2013-08-25 23:53:00,
2013-08-25 19:54:00,68.5,60.3,30.38,East,95,1.0,4.0,75,0.00,,,0.01,Wunderground v.1.15,2013-08-25 23:54:00,
2013-08-25 19:56:00,68.4,60.5,30.38,East,95,1.0,4.0,76,0.00,,,0.01,Wunderground v.1.15,2013-08-25 23:56:00,
2013-08-25 19:57:00,68.3,60.4,30.38,East,95,1.0,4.0,76,0.00,,,0.01,Wunderground v.1.15,2013-08-25 23:57:00,
2013-08-25 19:58:00,68.3,60.8,30.38,East,95,1.0,4.0,77,0.00,,,0.01,Wunderground v.1.15,2013-08-25 23:58:00,
2013-08-25 19:59:00,68.2,60.7,30.38,East,95,1.0,4.0,77,0.00,,,0.01,Wunderground v.1.15,2013-08-25 23:59:00,
2013-08-25 20:02:00,67.9,60.1,30.38,East,95,1.0,4.0,76,0.00,,,0.01,Wunderground v.1.15,2013-08-26 00:02:00,
2013-08-25 20:03:00,67.8,60.0,30.38,East,101,1.0,4.0,76,0.00,,,0.01,Wunderground v.1.15,2013-08-26 00:03:00,
2013-08-25 20:04:00,67.8,60.0,30.38,East,101,1.0,4.0,76,0.00,,,0.01,Wunderground v.1.15,2013-08-26 00:04:00,
2013-08-25 20:08:00,67.5,60.4,30.38,East,101,1.0,4.0,78,0.00,,,0.01,Wunderground v.1.15,2013-08-26 00:08:00,
2013-08-25 20:09:00,67.4,60.3,30.38,East,101,1.0,4.0,78,0.00,,,0.01,Wunderground v.1.15,2013-08-26 00:09:00,
2013-08-25 20:10:00,67.4,59.9,30.38,East,101,1.0,4.0,77,0.00,,,0.01,Wunderground v.1.15,2013-08-26 00:10:00,
2013-08-25 20:14:00,67.1,60.7,30.38,East,101,1.0,4.0,80,0.00,,,0.01,Wunderground v.1.15,2013-08-26 00:14:00,
2013-08-25 20:15:00,67.0,60.6,30.38,East,101,1.0,4.0,80,0.00,,,0.01,Wunderground v.1.15,2013-08-26 00:15:00,
2013-08-25 20:17:00,66.8,60.8,30.38,East,101,0.0,4.0,81,0.00,,,0.01,Wunderground v.1.15,2013-08-26 00:17:00,
2013-08-25 20:19:00,66.7,60.7,30.38,East,101,0.0,4.0,81,0.00,,,0.01,Wunderground v.1.15,2013-08-26 00:19:00,
2013-08-25 20:23:00,66.3,61.0,30.38,East,101,0.0,4.0,83,0.00,,,0.01,Wunderground v.1.15,2013-08-26 00:23:00,
2013-08-25 20:24:00,66.2,60.5,30.38,East,101,0.0,4.0,82,0.00,,,0.01,Wunderground v.1.15,2013-08-26 00:24:00,
2013-08-25 20:25:00,66.1,60.8,30.38,East,101,0.0,4.0,83,0.00,,,0.01,Wunderground v.1.15,2013-08-26 00:25:00,
2013-08-25 20:26:00,66.0,60.7,30.38,East,101,0.0,4.0,83,0.00,,,0.01,Wunderground v.1.15,2013-08-26 00:26:00,
2013-08-25 20:28:00,65.8,60.5,30.38,East,101,1.0,4.0,83,0.00,,,0.01,Wunderground v.1.15,2013-08-26 00:28:00,
2013-08-25 20:30:00,65.6,60.3,30.38,East,101,1.0,4.0,83,0.00,,,0.01,Wunderground v.1.15,2013-08-26 00:30:00,
2013-08-25 20:32:00,65.4,60.4,30.38,East,101,0.0,4.0,84,0.00,,,0.01,Wunderground v.1.15,2013-08-26 00:32:00,
2013-08-25 20:34:00,65.2,60.2,30.38,East,101,0.0,4.0,84,0.00,,,0.01,Wunderground v.1.15,2013-08-26 00:34:00,
2013-08-25 20:35:00,65.2,60.2,30.38,East,101,0.0,4.0,84,0.00,,,0.01,Wunderground v.1.15,2013-08-26 00:35:00,
2013-08-25 20:37:00,65.0,60.0,30.39,East,101,0.0,4.0,84,0.00,,,0.01,Wunderground v.1.15,2013-08-26 00:37:00,
2013-08-25 20:40:00,64.8,60.5,30.39,East,101,0.0,4.0,86,0.00,,,0.01,Wunderground v.1.15,2013-08-26 00:40:00,
2013-08-25 20:42:00,64.7,60.4,30.38,East,101,0.0,4.0,86,0.00,,,0.01,Wunderground v.1.15,2013-08-26 00:42:00,
2013-08-25 20:43:00,64.7,60.4,30.38,East,101,0.0,4.0,86,0.00,,,0.01,Wunderground v.1.15,2013-08-26 00:43:00,
2013-08-25 20:45:00,64.6,60.6,30.39,East,101,0.0,4.0,87,0.00,,,0.01,Wunderground v.1.15,2013-08-26 00:45:00,
2013-08-25 20:47:00,64.5,60.9,30.39,East,101,0.0,4.0,88,0.00,,,0.01,Wunderground v.1.15,2013-08-26 00:47:00,
2013-08-25 20:48:00,64.5,60.9,30.39,East,101,0.0,4.0,88,0.00,,,0.01,Wunderground v.1.15,2013-08-26 00:48:00,
2013-08-25 20:52:00,64.3,60.7,30.39,East,101,0.0,4.0,88,0.00,,,0.01,Wunderground v.1.15,2013-08-26 00:52:00,
2013-08-25 20:53:00,64.3,60.7,30.39,East,101,0.0,4.0,88,0.00,,,0.01,Wunderground v.1.15,2013-08-26 00:53:00,
2013-08-25 20:54:00,64.2,60.6,30.39,East,101,0.0,4.0,88,0.00,,,0.01,Wunderground v.1.15,2013-08-26 00:54:00,
2013-08-25 20:56:00,64.1,60.5,30.39,East,101,0.0,4.0,88,0.00,,,0.01,Wunderground v.1.15,2013-08-26 00:56:00,
2013-08-25 20:59:00,64.0,60.4,30.39,East,101,0.0,4.0,88,0.00,,,0.01,Wunderground v.1.15,2013-08-26 00:59:00,
2013-08-25 21:01:00,63.9,60.3,30.39,East,101,0.0,4.0,88,0.00,,,0.01,Wunderground v.1.15,2013-08-26 01:01:00,
2013-08-25 21:02:00,63.9,60.3,30.39,East,101,0.0,4.0,88,0.00,,,0.01,Wunderground v.1.15,2013-08-26 01:02:00,
2013-08-25 21:05:00,63.8,60.5,30.40,East,101,0.0,4.0,89,0.00,,,0.01,Wunderground v.1.15,2013-08-26 01:05:00,
2013-08-25 21:07:00,63.6,60.3,30.40,East,101,0.0,4.0,89,0.00,,,0.01,Wunderground v.1.15,2013-08-26 01:07:00,
2013-08-25 21:08:00,63.6,60.3,30.40,East,101,0.0,4.0,89,0.00,,,0.01,Wunderground v.1.15,2013-08-26 01:08:00,
2013-08-25 21:10:00,63.5,60.5,30.40,East,101,0.0,4.0,90,0.00,,,0.01,Wunderground v.1.15,2013-08-26 01:10:00,
2013-08-25 21:11:00,63.4,60.4,30.40,East,101,0.0,4.0,90,0.00,,,0.01,Wunderground v.1.15,2013-08-26 01:11:00,
2013-08-25 21:15:00,63.2,60.2,30.40,East,101,0.0,4.0,90,0.00,,,0.01,Wunderground v.1.15,2013-08-26 01:15:00,
2013-08-25 21:16:00,63.1,60.1,30.40,East,101,0.0,4.0,90,0.00,,,0.01,Wunderground v.1.15,2013-08-26 01:16:00,
2013-08-25 21:17:00,63.1,60.1,30.40,East,101,0.0,4.0,90,0.00,,,0.01,Wunderground v.1.15,2013-08-26 01:17:00,
2013-08-25 21:18:00,63.0,60.0,30.40,East,101,0.0,4.0,90,0.00,,,0.01,Wunderground v.1.15,2013-08-26 01:18:00,
2013-08-25 21:22:00,62.7,60.0,30.40,East,101,1.0,4.0,91,0.00,,,0.01,Wunderground v.1.15,2013-08-26 01:22:00,
2013-08-25 21:23:00,62.6,59.9,30.40,East,101,1.0,4.0,91,0.00,,,0.01,Wunderground v.1.15,2013-08-26 01:23:00,
2013-08-25 21:24:00,62.6,60.2,30.40,East,101,1.0,4.0,92,0.00,,,0.01,Wunderground v.1.15,2013-08-26 01:24:00,
2013-08-25 21:26:00,62.5,60.1,30.40,East,101,1.0,4.0,92,0.00,,,0.01,Wunderground v.1.15,2013-08-26 01:26:00,
2013-08-25 21:27:00,62.4,60.0,30.40,East,101,1.0,4.0,92,0.00,,,0.01,Wunderground v.1.15,2013-08-26 01:27:00,
2013-08-25 21:29:00,62.3,59.9,30.40,East,101,1.0,4.0,92,0.00,,,0.01,Wunderground v.1.15,2013-08-26 01:29:00,
2013-08-25 21:30:00,62.3,59.9,30.40,East,101,1.0,1.0,92,0.00,,,0.01,Wunderground v.1.15,2013-08-26 01:30:00,
2013-08-25 21:31:00,62.3,59.9,30.40,East,101,0.0,4.0,92,0.00,,,0.01,Wunderground v.1.15,2013-08-26 01:31:00,
2013-08-25 21:33:00,62.2,59.8,30.40,East,101,0.0,4.0,92,0.00,,,0.01,Wunderground v.1.15,2013-08-26 01:33:00,
2013-08-25 21:34:00,62.2,59.8,30.40,East,101,0.0,4.0,92,0.00,,,0.01,Wunderground v.1.15,2013-08-26 01:34:00,
2013-08-25 21:36:00,62.1,60.1,30.40,East,101,0.0,4.0,93,0.00,,,0.01,Wunderground v.1.15,2013-08-26 01:36:00,
2013-08-25 21:37:00,62.1,60.1,30.40,East,101,0.0,4.0,93,0.00,,,0.01,Wunderground v.1.15,2013-08-26 01:37:00,
2013-08-25 21:38:00,62.1,60.1,30.40,East,101,0.0,4.0,93,0.00,,,0.01,Wunderground v.1.15,2013-08-26 01:38:00,
2013-08-25 21:40:00,62.1,60.1,30.40,East,101,0.0,4.0,93,0.00,,,0.01,Wunderground v.1.15,2013-08-26 01:40:00,
2013-08-25 21:42:00,62.0,60.0,30.40,East,101,0.0,4.0,93,0.00,,,0.01,Wunderground v.1.15,2013-08-26 01:42:00,
2013-08-25 21:44:00,62.0,60.0,30.40,East,101,0.0,4.0,93,0.00,,,0.01,Wunderground v.1.15,2013-08-26 01:44:00,
2013-08-25 21:46:00,62.0,60.0,30.40,East,101,0.0,4.0,93,0.00,,,0.01,Wunderground v.1.15,2013-08-26 01:46:00,
2013-08-25 21:47:00,61.9,60.2,30.40,East,101,0.0,4.0,94,0.00,,,0.01,Wunderground v.1.15,2013-08-26 01:47:00,
2013-08-25 21:48:00,61.9,60.2,30.40,East,101,0.0,4.0,94,0.00,,,0.01,Wunderground v.1.15,2013-08-26 01:48:00,
2013-08-25 21:49:00,61.9,60.2,30.40,East,101,0.0,4.0,94,0.00,,,0.01,Wunderground v.1.15,2013-08-26 01:49:00,
2013-08-25 21:52:00,61.8,60.1,30.40,East,101,0.0,4.0,94,0.00,,,0.01,Wunderground v.1.15,2013-08-26 01:52:00,
2013-08-25 21:53:00,61.8,60.1,30.40,East,101,0.0,4.0,94,0.00,,,0.01,Wunderground v.1.15,2013-08-26 01:53:00,
2013-08-25 21:54:00,61.8,60.1,30.40,East,101,0.0,4.0,94,0.00,,,0.01,Wunderground v.1.15,2013-08-26 01:54:00,
2013-08-25 21:55:00,61.8,60.1,30.40,East,101,0.0,4.0,94,0.00,,,0.01,Wunderground v.1.15,2013-08-26 01:55:00,
2013-08-25 21:57:00,61.7,60.0,30.40,East,101,0.0,4.0,94,0.00,,,0.01,Wunderground v.1.15,2013-08-26 01:57:00,
2013-08-25 22:00:00,61.6,59.9,30.40,East,101,0.0,4.0,94,0.00,,,0.01,Wunderground v.1.15,2013-08-26 02:00:00,
2013-08-25 22:01:00,61.5,59.8,30.41,East,101,0.0,4.0,94,0.00,,,0.01,Wunderground v.1.15,2013-08-26 02:01:00,
2013-08-25 22:05:00,61.4,59.7,30.40,East,101,0.0,4.0,94,0.00,,,0.01,Wunderground v.1.15,2013-08-26 02:05:00,
2013-08-25 22:06:00,61.4,59.7,30.40,East,101,0.0,4.0,94,0.00,,,0.01,Wunderground v.1.15,2013-08-26 02:06:00,
2013-08-25 22:07:00,61.4,59.7,30.40,East,101,0.0,4.0,94,0.00,,,0.01,Wunderground v.1.15,2013-08-26 02:07:00,
2013-08-25 22:09:00,61.3,59.6,30.40,East,101,0.0,4.0,94,0.00,,,0.01,Wunderground v.1.15,2013-08-26 02:09:00,
2013-08-25 22:11:00,61.3,59.6,30.41,East,101,0.0,4.0,94,0.00,,,0.01,Wunderground v.1.15,2013-08-26 02:11:00,
2013-08-25 22:12:00,61.3,59.6,30.41,East,101,0.0,4.0,94,0.00,,,0.01,Wunderground v.1.15,2013-08-26 02:12:00,
2013-08-25 22:14:00,61.3,59.6,30.41,East,101,0.0,4.0,94,0.00,,,0.01,Wunderground v.1.15,2013-08-26 02:14:00,
2013-08-25 22:15:00,61.2,59.5,30.41,East,101,0.0,4.0,94,0.00,,,0.01,Wunderground v.1.15,2013-08-26 02:15:00,
2013-08-25 22:17:00,61.2,59.8,30.41,East,101,0.0,4.0,95,0.00,,,0.01,Wunderground v.1.15,2013-08-26 02:17:00,
2013-08-25 22:19:00,61.1,59.7,30.41,East,101,0.0,4.0,95,0.00,,,0.01,Wunderground v.1.15,2013-08-26 02:19:00,
2013-08-25 22:20:00,61.1,59.7,30.41,East,101,0.0,4.0,95,0.00,,,0.01,Wunderground v.1.15,2013-08-26 02:20:00,
2013-08-25 22:25:00,61.0,59.6,30.41,East,101,0.0,4.0,95,0.00,,,0.01,Wunderground v.1.15,2013-08-26 02:25:00,
2013-08-25 22:26:00,61.0,59.6,30.41,East,101,0.0,4.0,95,0.00,,,0.01,Wunderground v.1.15,2013-08-26 02:26:00,
2013-08-25 22:27:00,60.9,59.5,30.41,East,101,0.0,4.0,95,0.00,,,0.01,Wunderground v.1.15,2013-08-26 02:27:00,
2013-08-25 22:31:00,60.8,59.4,30.41,East,101,0.0,4.0,95,0.00,,,0.01,Wunderground v.1.15,2013-08-26 02:31:00,
2013-08-25 22:33:00,60.8,59.7,30.42,East,101,0.0,4.0,96,0.00,,,0.01,Wunderground v.1.15,2013-08-26 02:33:00,
2013-08-25 22:35:00,60.8,59.7,30.42,East,101,0.0,4.0,96,0.00,,,0.01,Wunderground v.1.15,2013-08-26 02:35:00,
2013-08-25 22:36:00,60.8,59.7,30.42,East,101,0.0,4.0,96,0.00,,,0.01,Wunderground v.1.15,2013-08-26 02:36:00,
2013-08-25 22:37:00,60.8,59.7,30.42,East,101,0.0,4.0,96,0.00,,,0.01,Wunderground v.1.15,2013-08-26 02:37:00,
2013-08-25 22:40:00,60.8,59.7,30.42,East,101,0.0,4.0,96,0.00,,,0.01,Wunderground v.1.15,2013-08-26 02:40:00,
2013-08-25 22:42:00,60.8,59.7,30.41,East,101,0.0,4.0,96,0.00,,,0.01,Wunderground v.1.15,2013-08-26 02:42:00,
2013-08-25 22:45:00,60.8,59.7,30.42,East,101,0.0,4.0,96,0.00,,,0.01,Wunderground v.1.15,2013-08-26 02:45:00,
2013-08-25 22:46:00,60.8,59.7,30.42,East,101,0.0,4.0,96,0.00,,,0.01,Wunderground v.1.15,2013-08-26 02:46:00,
2013-08-25 22:48:00,60.8,59.7,30.42,East,101,0.0,4.0,96,0.00,,,0.01,Wunderground v.1.15,2013-08-26 02:48:00,
2013-08-25 22:49:00,60.8,59.7,30.42,East,101,0.0,4.0,96,0.00,,,0.01,Wunderground v.1.15,2013-08-26 02:49:00,
2013-08-25 22:52:00,60.8,59.7,30.42,East,101,0.0,4.0,96,0.00,,,0.01,Wunderground v.1.15,2013-08-26 02:52:00,
2013-08-25 22:53:00,60.8,59.7,30.42,East,101,0.0,4.0,96,0.00,,,0.01,Wunderground v.1.15,2013-08-26 02:53:00,
2013-08-25 22:56:00,60.8,59.7,30.42,East,101,0.0,4.0,96,0.00,,,0.01,Wunderground v.1.15,2013-08-26 02:56:00,
2013-08-25 22:58:00,60.8,59.7,30.42,East,101,0.0,4.0,96,0.00,,,0.01,Wunderground v.1.15,2013-08-26 02:58:00,
2013-08-25 23:01:00,60.8,59.7,30.42,East,101,0.0,0.0,96,0.00,,,0.01,Wunderground v.1.15,2013-08-26 03:01:00,
2013-08-25 23:02:00,60.8,59.7,30.42,East,101,0.0,0.0,96,0.00,,,0.01,Wunderground v.1.15,2013-08-26 03:02:00,
2013-08-25 23:04:00,60.8,59.9,30.42,East,101,0.0,1.0,97,0.00,,,0.01,Wunderground v.1.15,2013-08-26 03:04:00,
2013-08-25 23:05:00,60.8,59.9,30.42,East,101,0.0,1.0,97,0.00,,,0.01,Wunderground v.1.15,2013-08-26 03:05:00,
2013-08-25 23:07:00,60.8,59.9,30.42,East,101,0.0,1.0,97,0.00,,,0.01,Wunderground v.1.15,2013-08-26 03:07:00,
2013-08-25 23:10:00,60.8,59.7,30.42,East,101,0.0,0.0,96,0.00,,,0.01,Wunderground v.1.15,2013-08-26 03:10:00,
2013-08-25 23:12:00,60.8,59.7,30.42,East,101,0.0,1.0,96,0.00,,,0.01,Wunderground v.1.15,2013-08-26 03:12:00,
2013-08-25 23:13:00,60.8,59.7,30.42,East,101,0.0,1.0,96,0.00,,,0.01,Wunderground v.1.15,2013-08-26 03:13:00,
2013-08-25 23:15:00,60.8,59.7,30.42,East,101,0.0,1.0,96,0.00,,,0.01,Wunderground v.1.15,2013-08-26 03:15:00,
2013-08-25 23:16:00,60.8,59.7,30.42,East,101,0.0,1.0,96,0.00,,,0.01,Wunderground v.1.15,2013-08-26 03:16:00,
2013-08-25 23:17:00,60.8,59.7,30.42,East,101,0.0,1.0,96,0.00,,,0.01,Wunderground v.1.15,2013-08-26 03:17:00,
2013-08-25 23:18:00,60.8,59.7,30.42,East,101,0.0,1.0,96,0.00,,,0.01,Wunderground v.1.15,2013-08-26 03:18:00,
2013-08-25 23:20:00,60.8,59.7,30.42,East,101,0.0,0.0,96,0.00,,,0.01,Wunderground v.1.15,2013-08-26 03:20:00,
2013-08-25 23:23:00,60.9,60.0,30.42,East,101,0.0,0.0,97,0.00,,,0.01,Wunderground v.1.15,2013-08-26 03:23:00,
2013-08-25 23:25:00,60.9,60.0,30.42,East,101,0.0,0.0,97,0.00,,,0.01,Wunderground v.1.15,2013-08-26 03:25:00,
2013-08-25 23:28:00,61.0,60.1,30.42,East,101,0.0,1.0,97,0.00,,,0.01,Wunderground v.1.15,2013-08-26 03:28:00,
2013-08-25 23:29:00,61.0,60.1,30.43,East,101,0.0,1.0,97,0.00,,,0.01,Wunderground v.1.15,2013-08-26 03:29:00,
2013-08-25 23:30:00,61.0,60.1,30.43,East,101,0.0,0.0,97,0.00,,,0.01,Wunderground v.1.15,2013-08-26 03:30:00,
2013-08-25 23:31:00,61.0,60.1,30.43,East,101,0.0,2.0,97,0.00,,,0.01,Wunderground v.1.15,2013-08-26 03:31:00,
2013-08-25 23:35:00,61.0,60.1,30.43,East,101,0.0,2.0,97,0.00,,,0.01,Wunderground v.1.15,2013-08-26 03:35:00,
2013-08-25 23:36:00,61.0,60.1,30.42,East,101,0.0,2.0,97,0.00,,,0.01,Wunderground v.1.15,2013-08-26 03:36:00,
2013-08-25 23:37:00,61.0,60.1,30.42,East,101,0.0,2.0,97,0.00,,,0.01,Wunderground v.1.15,2013-08-26 03:37:00,
2013-08-25 23:38:00,61.0,60.1,30.43,East,101,0.0,2.0,97,0.00,,,0.01,Wunderground v.1.15,2013-08-26 03:38:00,
2013-08-25 23:41:00,60.9,59.8,30.43,East,101,0.0,2.0,96,0.00,,,0.01,Wunderground v.1.15,2013-08-26 03:41:00,
2013-08-25 23:43:00,60.9,59.8,30.42,East,101,0.0,2.0,96,0.00,,,0.01,Wunderground v.1.15,2013-08-26 03:43:00,
2013-08-25 23:45:00,61.0,59.9,30.43,East,101,0.0,2.0,96,0.00,,,0.01,Wunderground v.1.15,2013-08-26 03:45:00,
2013-08-25 23:46:00,61.0,59.9,30.43,East,101,0.0,2.0,96,0.00,,,0.01,Wunderground v.1.15,2013-08-26 03:46:00,
2013-08-25 23:49:00,61.0,59.9,30.43,East,101,0.0,2.0,96,0.00,,,0.01,Wunderground v.1.15,2013-08-26 03:49:00,
2013-08-25 23:50:00,60.9,59.8,30.43,East,101,0.0,2.0,96,0.00,,,0.01,Wunderground v.1.15,2013-08-26 03:50:00,
2013-08-25 23:51:00,60.9,59.8,30.42,East,101,0.0,2.0,96,0.00,,,0.01,Wunderground v.1.15,2013-08-26 03:51:00,
2013-08-25 23:52:00,60.9,59.8,30.42,East,101,0.0,2.0,96,0.00,,,0.01,Wunderground v.1.15,2013-08-26 03:52:00,
2013-08-25 23:56:00,60.9,59.8,30.43,East,101,0.0,2.0,96,0.00,,,0.01,Wunderground v.1.15,2013-08-26 03:56:00,
2013-08-25 23:57:00,60.9,59.8,30.43,East,101,0.0,2.0,96,0.00,,,0.01,Wunderground v.1.15,2013-08-26 03:57:00,
2013-08-25 23:59:00,61.0,60.1,30.43,East,101,0.0,2.0,97,0.00,,,0.01,Wunderground v.1.15,2013-08-26 03:59:00,